BOX619 ZSPD-KLAX

Flight info

Callsign BOX619
Flight time N/A
Altitude 29000
Route LAM81D LAMEN/N0496F290 A593 SADLI Y590 BEDAR Y591 FUE Y23 KASTE Y81 TASOT Y57 POROT Y809 IDLAN Y812 ADNAP OTR5 KALNA DCT 43N160E/N0497F310 44N170E 43N180E 41N170W 41N160W/N0481F330 40N150W 37N140W 34N130W/N0475F350 33N127W DCT EDSEL DCT FICKY GOATZ2
Aircraft B77L/H-SDE1E2E3FGHIJ2J3J4J5M1RWXY/LB1D1

Departure

Time 2026-05-05 07:34
Airport Shanghai Pudong International Airport (ZSPD)

Arrival

Time N/A
Airport Los Angeles International Airport (KLAX)
Time Latitude Longitude Altitude Speed Heading
2026-05-05 07:08 31.15167 121.78016 28 ft 0 kts 252°
2026-05-05 07:13 31.15167 121.78017 27 ft 0 kts 252°
2026-05-05 07:23 31.15171 121.78031 27 ft 3 kts 252°
2026-05-05 07:23 31.15177 121.78054 27 ft 3 kts 252°
2026-05-05 07:23 31.15183 121.78076 27 ft 3 kts 252°
2026-05-05 07:24 31.15189 121.78094 26 ft 2 kts 253°
2026-05-05 07:24 31.15192 121.78115 26 ft 3 kts 284°
2026-05-05 07:24 31.15184 121.78131 26 ft 3 kts 333°
2026-05-05 07:24 31.15165 121.78139 25 ft 2 kts 343°
2026-05-05 07:25 31.15156 121.78142 26 ft 1 kts 342°
2026-05-05 07:25 31.15155 121.78143 25 ft 6 kts 342°
2026-05-05 07:27 31.15159 121.78141 26 ft 2 kts 342°
2026-05-05 07:27 31.15190 121.78130 24 ft 7 kts 341°
2026-05-05 07:28 31.15228 121.78115 27 ft 11 kts 342°
2026-05-05 07:28 31.15338 121.78074 27 ft 13 kts 346°
2026-05-05 07:28 31.15405 121.78123 28 ft 13 kts 69°
2026-05-05 07:28 31.15433 121.78222 28 ft 13 kts 72°
2026-05-05 07:29 31.15460 121.78321 29 ft 13 kts 72°
2026-05-05 07:29 31.15487 121.78420 29 ft 13 kts 72°
2026-05-05 07:29 31.15514 121.78517 28 ft 11 kts 72°
2026-05-05 07:29 31.15538 121.78603 27 ft 11 kts 72°
2026-05-05 07:30 31.15561 121.78689 27 ft 12 kts 72°
2026-05-05 07:30 31.15600 121.78860 27 ft 14 kts 81°
2026-05-05 07:30 31.15615 121.78962 26 ft 11 kts 64°
2026-05-05 07:31 31.15687 121.78984 27 ft 12 kts 348°
2026-05-05 07:31 31.15765 121.78953 26 ft 12 kts 342°
2026-05-05 07:31 31.15849 121.78922 27 ft 13 kts 342°
2026-05-05 07:31 31.15938 121.78888 27 ft 14 kts 342°
2026-05-05 07:32 31.16033 121.78851 27 ft 15 kts 342°
2026-05-05 07:32 31.16113 121.78821 27 ft 10 kts 342°
2026-05-05 07:32 31.16145 121.78756 27 ft 10 kts 268°
2026-05-05 07:32 31.16126 121.78675 27 ft 11 kts 253°
2026-05-05 07:33 31.16083 121.78620 27 ft 6 kts 182°
2026-05-05 07:33 31.16042 121.78629 26 ft 0 kts 162°
2026-05-05 07:33 31.16034 121.78632 32 ft 7 kts 161°
2026-05-05 07:33 31.15907 121.78681 26 ft 41 kts 162°
2026-05-05 07:34 31.15390 121.78876 27 ft 115 kts 162°
2026-05-05 07:34 31.14394 121.79253 27 ft 181 kts 162°
2026-05-05 07:34 31.13100 121.79736 297 ft 201 kts 162°
2026-05-05 07:34 31.11747 121.80233 879 ft 207 kts 163°
2026-05-05 07:35 31.10405 121.80710 1728 ft 198 kts 165°
2026-05-05 07:35 31.09063 121.81178 2113 ft 209 kts 166°
2026-05-05 07:35 31.07614 121.81656 2413 ft 223 kts 167°
2026-05-05 07:35 31.06085 121.82156 2762 ft 236 kts 167°
2026-05-05 07:36 31.04440 121.82698 3029 ft 249 kts 166°
2026-05-05 07:36 31.02763 121.83254 3598 ft 256 kts 166°
2026-05-05 07:36 31.01048 121.83824 4244 ft 258 kts 165°
2026-05-05 07:36 30.99309 121.84411 4800 ft 260 kts 162°
2026-05-05 07:37 30.97594 121.85168 5282 ft 267 kts 158°
2026-05-05 07:37 30.95885 121.86004 5888 ft 266 kts 158°
2026-05-05 07:37 30.94154 121.86840 6372 ft 273 kts 158°
2026-05-05 07:37 30.92376 121.87670 6854 ft 277 kts 161°
2026-05-05 07:38 30.90538 121.88359 7363 ft 279 kts 163°
2026-05-05 07:38 30.88670 121.89016 7891 ft 281 kts 164°
2026-05-05 07:38 30.86789 121.89693 8399 ft 284 kts 163°
2026-05-05 07:38 30.84892 121.90384 8899 ft 287 kts 164°
2026-05-05 07:39 30.83011 121.91181 9340 ft 290 kts 150°
2026-05-05 07:39 30.81475 121.92730 9631 ft 300 kts 124°
2026-05-05 07:39 30.80648 121.94971 9930 ft 309 kts 98°
2026-05-05 07:39 30.80713 121.97488 10177 ft 320 kts 75°
2026-05-05 07:40 30.81503 121.99960 10298 ft 334 kts 64°
2026-05-05 07:40 30.82519 122.02465 10445 ft 351 kts 63°
2026-05-05 07:40 30.83623 122.05087 10571 ft 370 kts 63°
2026-05-05 07:40 30.84781 122.07827 10886 ft 382 kts 63°
2026-05-05 07:41 30.85955 122.10622 11444 ft 386 kts 63°
2026-05-05 07:41 30.87134 122.13458 12000 ft 392 kts 63°
2026-05-05 07:41 30.88319 122.16334 12559 ft 396 kts 63°
2026-05-05 07:41 30.89510 122.19246 13167 ft 400 kts 63°
2026-05-05 07:42 30.90709 122.22191 13717 ft 405 kts 63°
2026-05-05 07:42 30.91919 122.25171 14230 ft 409 kts 63°
2026-05-05 07:42 30.93137 122.28179 14756 ft 412 kts 63°
2026-05-05 07:42 30.94363 122.31211 15304 ft 415 kts 63°
2026-05-05 07:43 30.95599 122.34271 15805 ft 419 kts 64°
2026-05-05 07:43 30.96844 122.37357 16285 ft 423 kts 64°
2026-05-05 07:43 30.98085 122.40436 16759 ft 428 kts 64°
2026-05-05 07:43 30.99355 122.43586 17245 ft 431 kts 64°
2026-05-05 07:44 31.00634 122.46764 17723 ft 435 kts 64°
2026-05-05 07:44 31.01923 122.49968 18193 ft 439 kts 64°
2026-05-05 07:44 31.03223 122.53202 18648 ft 442 kts 64°
2026-05-05 07:44 31.04530 122.56457 19125 ft 444 kts 64°
2026-05-05 07:45 31.05841 122.59726 19547 ft 447 kts 64°
2026-05-05 07:45 31.07163 122.63025 19933 ft 451 kts 64°
2026-05-05 07:45 31.08497 122.66355 20291 ft 456 kts 64°
2026-05-05 07:45 31.09844 122.69722 20668 ft 460 kts 64°
2026-05-05 07:46 31.11198 122.73110 21091 ft 462 kts 64°
2026-05-05 07:46 31.12560 122.76522 21495 ft 465 kts 64°
2026-05-05 07:46 31.13930 122.79956 21886 ft 469 kts 64°
2026-05-05 07:46 31.15309 122.83416 22268 ft 472 kts 65°
2026-05-05 07:47 31.16700 122.86908 22659 ft 475 kts 65°
2026-05-05 07:47 31.18093 122.90411 23100 ft 477 kts 65°
2026-05-05 07:47 31.19497 122.93943 23419 ft 482 kts 65°
2026-05-05 07:47 31.20914 122.97514 23725 ft 486 kts 65°
2026-05-05 07:48 31.22342 123.01112 24038 ft 489 kts 65°
2026-05-05 07:48 31.23774 123.04729 24362 ft 492 kts 65°
2026-05-05 07:48 31.25233 123.08366 24653 ft 496 kts 64°
2026-05-05 07:48 31.26730 123.12011 24931 ft 499 kts 64°
2026-05-05 07:49 31.28236 123.15689 25217 ft 503 kts 64°
2026-05-05 07:49 31.29734 123.19400 25415 ft 508 kts 65°
2026-05-05 07:49 31.31232 123.23168 25673 ft 512 kts 65°
2026-05-05 07:49 31.32721 123.26954 26052 ft 513 kts 65°
2026-05-05 07:50 31.34209 123.30761 26371 ft 516 kts 65°
2026-05-05 07:50 31.35700 123.34588 26610 ft 520 kts 65°
2026-05-05 07:50 31.37203 123.38450 26846 ft 523 kts 65°
2026-05-05 07:50 31.38718 123.42343 27111 ft 527 kts 65°
2026-05-05 07:51 31.40240 123.46254 27384 ft 530 kts 65°
2026-05-05 07:51 31.41770 123.50187 27662 ft 533 kts 65°
2026-05-05 07:51 31.43296 123.54148 27919 ft 535 kts 67°
2026-05-05 07:51 31.44739 123.58181 28237 ft 537 kts 68°
2026-05-05 07:52 31.46174 123.62226 28568 ft 538 kts 67°
2026-05-05 07:52 31.47642 123.66207 28797 ft 541 kts 66°
2026-05-05 07:52 31.49195 123.70241 28982 ft 545 kts 65°
2026-05-05 07:52 31.50797 123.74288 29093 ft 550 kts 65°
2026-05-05 07:53 31.54059 123.82436 29181 ft 552 kts 65°
2026-05-05 07:53 31.57281 123.90561 29178 ft 547 kts 65°
2026-05-05 07:54 31.60440 123.98675 29163 ft 548 kts 68°
2026-05-05 07:54 31.62758 124.07236 29184 ft 554 kts 77°
2026-05-05 07:55 31.64631 124.16030 29185 ft 556 kts 77°
2026-05-05 07:55 31.66537 124.24826 29167 ft 557 kts 77°
2026-05-05 07:56 31.68487 124.33633 29198 ft 558 kts 77°
2026-05-05 07:56 31.70441 124.42431 29199 ft 556 kts 77°
2026-05-05 07:57 31.72375 124.51191 29172 ft 554 kts 77°
2026-05-05 07:57 31.74299 124.59959 29211 ft 555 kts 77°
2026-05-05 07:58 31.76222 124.68761 29213 ft 557 kts 77°
2026-05-05 07:58 31.78149 124.77602 29185 ft 559 kts 77°
2026-05-05 07:59 31.80076 124.86469 29217 ft 561 kts 77°
2026-05-05 07:59 31.81853 124.95408 29104 ft 561 kts 85°
2026-05-05 08:00 31.82135 125.04490 29105 ft 553 kts 98°
2026-05-05 08:00 31.80946 125.13333 29119 ft 546 kts 108°
2026-05-05 08:01 31.79410 125.22109 29123 ft 549 kts 107°
2026-05-05 08:01 31.77948 125.30875 29110 ft 552 kts 107°
2026-05-05 08:02 31.76498 125.39743 29122 ft 554 kts 107°
2026-05-05 08:02 31.75035 125.48641 29137 ft 555 kts 107°
2026-05-05 08:03 31.73559 125.57551 29119 ft 556 kts 107°
2026-05-05 08:03 31.72909 125.66657 29120 ft 566 kts 92°
2026-05-05 08:04 31.73984 125.75852 29092 ft 572 kts 77°
2026-05-05 08:04 31.76126 125.84862 29120 ft 573 kts 77°
2026-05-05 08:05 31.78148 125.93933 29135 ft 575 kts 78°
2026-05-05 08:05 31.80124 126.03069 29164 ft 578 kts 78°
2026-05-05 08:06 31.82121 126.12208 29124 ft 576 kts 78°
2026-05-05 08:06 31.84095 126.21240 29120 ft 572 kts 78°
2026-05-05 08:07 31.86056 126.30280 29111 ft 570 kts 78°
2026-05-05 08:07 31.88006 126.39331 29127 ft 572 kts 78°
2026-05-05 08:08 31.89963 126.48423 29146 ft 575 kts 78°
2026-05-05 08:08 31.91960 126.57543 29126 ft 577 kts 78°
2026-05-05 08:09 31.93993 126.66699 29137 ft 579 kts 78°
2026-05-05 08:09 31.96018 126.75882 29114 ft 580 kts 78°
2026-05-05 08:10 31.98033 126.85088 29163 ft 581 kts 78°
2026-05-05 08:10 32.00040 126.94296 29130 ft 579 kts 78°
2026-05-05 08:11 32.02034 127.03473 29113 ft 577 kts 78°
2026-05-05 08:11 32.04142 127.12578 29120 ft 577 kts 73°
2026-05-05 08:12 32.07287 127.21296 29158 ft 579 kts 65°
2026-05-05 08:12 32.10680 127.29925 29127 ft 581 kts 66°
2026-05-05 08:13 32.13965 127.38637 29142 ft 582 kts 67°
2026-05-05 08:13 32.17223 127.47344 29137 ft 584 kts 67°
2026-05-05 08:14 32.20506 127.56132 29143 ft 586 kts 67°
2026-05-05 08:14 32.23793 127.64945 29128 ft 586 kts 67°
2026-05-05 08:15 32.27067 127.73742 29100 ft 584 kts 67°
2026-05-05 08:15 32.30327 127.82527 29155 ft 584 kts 67°
2026-05-05 08:16 32.33582 127.91322 29136 ft 584 kts 67°
2026-05-05 08:16 32.36829 128.00119 29121 ft 583 kts 67°
2026-05-05 08:17 32.40071 128.08923 29134 ft 584 kts 67°
2026-05-05 08:17 32.43311 128.17747 29139 ft 585 kts 68°
2026-05-05 08:18 32.46550 128.26592 29148 ft 586 kts 68°
2026-05-05 08:18 32.49791 128.35464 29136 ft 587 kts 68°
2026-05-05 08:19 32.53031 128.44358 29144 ft 588 kts 68°
2026-05-05 08:19 32.56268 128.53264 29137 ft 588 kts 68°
2026-05-05 08:20 32.58946 128.60655 29132 ft 586 kts 68°
2026-05-05 08:20 32.62157 128.69535 29134 ft 585 kts 68°
2026-05-05 08:21 32.65353 128.78399 29134 ft 586 kts 68°
2026-05-05 08:21 32.68040 128.87500 29121 ft 583 kts 79°
2026-05-05 08:22 32.69878 128.96843 29126 ft 581 kts 80°
2026-05-05 08:22 32.71708 129.06203 29151 ft 583 kts 79°
2026-05-05 08:23 32.73595 129.15563 29119 ft 583 kts 79°
2026-05-05 08:23 32.75502 129.24931 29138 ft 584 kts 79°
2026-05-05 08:24 32.77398 129.34312 29141 ft 584 kts 79°
2026-05-05 08:24 32.79284 129.43707 29135 ft 585 kts 79°
2026-05-05 08:25 32.81150 129.53050 29135 ft 585 kts 79°
2026-05-05 08:25 32.83023 129.62456 29127 ft 585 kts 79°
2026-05-05 08:26 32.84801 129.71879 29114 ft 583 kts 83°
2026-05-05 08:26 32.86196 129.81367 29076 ft 583 kts 84°
2026-05-05 08:27 32.87519 129.90870 29104 ft 582 kts 84°
2026-05-05 08:27 32.88864 130.00361 29116 ft 582 kts 84°
2026-05-05 08:28 32.90228 130.09848 29103 ft 582 kts 83°
2026-05-05 08:28 32.91590 130.19353 29125 ft 583 kts 83°
2026-05-05 08:29 32.92944 130.28869 29118 ft 583 kts 83°
2026-05-05 08:30 32.94956 130.43140 29128 ft 583 kts 84°
2026-05-05 08:30 32.96289 130.52675 29108 ft 584 kts 83°
2026-05-05 08:31 32.97617 130.62213 29127 ft 584 kts 83°
2026-05-05 08:31 32.98939 130.71764 29107 ft 585 kts 83°
2026-05-05 08:32 33.00254 130.81320 29109 ft 585 kts 84°
2026-05-05 08:32 33.01561 130.90886 29101 ft 585 kts 84°
2026-05-05 08:33 33.02864 131.00457 29101 ft 585 kts 83°
2026-05-05 08:33 33.04158 131.10026 29127 ft 584 kts 83°
2026-05-05 08:34 33.05440 131.19578 29116 ft 584 kts 84°
2026-05-05 08:34 33.06717 131.29138 29117 ft 584 kts 84°
2026-05-05 08:35 33.07989 131.38708 29114 ft 584 kts 83°
2026-05-05 08:35 33.09253 131.48271 29118 ft 584 kts 84°
2026-05-05 08:36 33.10508 131.57840 29117 ft 584 kts 84°
2026-05-05 08:36 33.11755 131.67401 29137 ft 583 kts 84°
2026-05-05 08:37 33.12995 131.76964 29139 ft 584 kts 84°
2026-05-05 08:37 33.14229 131.86531 29147 ft 584 kts 84°
2026-05-05 08:38 33.15456 131.96110 29149 ft 584 kts 84°
2026-05-05 08:38 33.16674 132.05682 29175 ft 582 kts 84°
2026-05-05 08:39 33.17883 132.15238 29156 ft 582 kts 84°
2026-05-05 08:39 33.19072 132.24797 29144 ft 582 kts 84°
2026-05-05 08:40 33.20239 132.34281 29154 ft 581 kts 84°
2026-05-05 08:40 33.21408 132.43821 29180 ft 581 kts 84°
2026-05-05 08:41 33.22572 132.53367 29172 ft 581 kts 84°
2026-05-05 08:41 33.23732 132.62924 29153 ft 581 kts 84°
2026-05-05 08:42 33.24909 132.72474 29181 ft 581 kts 84°
2026-05-05 08:42 33.26085 132.82026 29187 ft 582 kts 84°
2026-05-05 08:43 33.27251 132.91622 29184 ft 584 kts 84°
2026-05-05 08:43 33.28418 133.01238 29155 ft 585 kts 84°
2026-05-05 08:44 33.29564 133.10831 29165 ft 582 kts 84°
2026-05-05 08:44 33.30686 133.20393 29172 ft 581 kts 84°
2026-05-05 08:45 33.31794 133.29953 29177 ft 580 kts 84°
2026-05-05 08:45 33.32889 133.39495 29180 ft 579 kts 84°
2026-05-05 08:46 33.33982 133.49035 29201 ft 579 kts 84°
2026-05-05 08:46 33.35068 133.58577 29173 ft 579 kts 84°
2026-05-05 08:47 33.36149 133.68134 29168 ft 579 kts 84°
2026-05-05 08:47 33.37221 133.77675 29175 ft 579 kts 84°
2026-05-05 08:48 33.38285 133.87222 29186 ft 579 kts 84°
2026-05-05 08:48 33.39341 133.96771 29183 ft 579 kts 84°
2026-05-05 08:49 33.40384 134.06251 29188 ft 578 kts 84°
2026-05-05 08:49 33.41427 134.15777 29174 ft 576 kts 84°
2026-05-05 08:50 33.42453 134.25265 29187 ft 574 kts 84°
2026-05-05 08:50 33.43469 134.34747 29193 ft 574 kts 84°
2026-05-05 08:51 33.44480 134.44224 29182 ft 574 kts 84°
2026-05-05 08:51 33.45488 134.53715 29225 ft 575 kts 84°
2026-05-05 08:52 33.46485 134.63216 29156 ft 576 kts 84°
2026-05-05 08:52 33.47471 134.72727 29201 ft 576 kts 84°
2026-05-05 08:53 33.48456 134.82266 29216 ft 578 kts 84°
2026-05-05 08:53 33.49435 134.91823 29241 ft 577 kts 85°
2026-05-05 08:54 33.50404 135.01350 29184 ft 574 kts 84°
2026-05-05 08:54 33.51370 135.10800 29193 ft 570 kts 84°
2026-05-05 08:55 33.52327 135.20213 29195 ft 568 kts 84°
2026-05-05 08:55 33.53274 135.29677 29175 ft 577 kts 84°
2026-05-05 08:56 33.54233 135.39289 29196 ft 584 kts 84°
2026-05-05 08:56 33.55190 135.48933 29202 ft 582 kts 84°
2026-05-05 08:57 33.56132 135.58558 29193 ft 580 kts 84°
2026-05-05 08:57 33.57065 135.68162 29196 ft 580 kts 84°
2026-05-05 08:58 33.57993 135.77754 29183 ft 579 kts 84°
2026-05-05 08:58 33.58913 135.87375 29196 ft 582 kts 84°
2026-05-05 08:59 33.59832 135.97047 29221 ft 585 kts 84°
2026-05-05 08:59 33.60745 136.06758 29197 ft 587 kts 84°
2026-05-05 09:00 33.61652 136.16484 29215 ft 586 kts 85°
2026-05-05 09:00 33.62545 136.26132 29223 ft 585 kts 84°
2026-05-05 09:01 33.63434 136.35818 29213 ft 583 kts 85°
2026-05-05 09:01 33.64312 136.45493 29215 ft 583 kts 85°
2026-05-05 09:02 33.65185 136.55180 29214 ft 584 kts 85°
2026-05-05 09:02 33.66052 136.64886 29208 ft 585 kts 85°
2026-05-05 09:03 33.66913 136.74602 29221 ft 586 kts 85°
2026-05-05 09:03 33.67766 136.84325 29212 ft 586 kts 85°
2026-05-05 09:04 33.68611 136.94043 29210 ft 585 kts 85°
2026-05-05 09:04 33.69448 137.03756 29213 ft 585 kts 85°
2026-05-05 09:05 33.70218 137.13470 29213 ft 583 kts 89°
2026-05-05 09:05 33.70543 137.23191 29217 ft 582 kts 90°
2026-05-05 09:06 33.70779 137.32917 29209 ft 583 kts 90°
2026-05-05 09:06 33.71037 137.42638 29207 ft 581 kts 91°
2026-05-05 09:07 33.71315 137.52331 29205 ft 580 kts 91°
2026-05-05 09:07 33.71588 137.61988 29215 ft 578 kts 91°
2026-05-05 09:08 33.71807 137.70010 29212 ft 578 kts 91°
2026-05-05 09:08 33.72062 137.79663 29217 ft 578 kts 91°
2026-05-05 09:09 33.72308 137.89321 29196 ft 579 kts 91°
2026-05-05 09:09 33.72548 137.98975 29211 ft 578 kts 91°
2026-05-05 09:10 33.72780 138.08634 29215 ft 578 kts 91°
2026-05-05 09:10 33.73005 138.18294 29216 ft 579 kts 91°
2026-05-05 09:11 33.73222 138.27959 29217 ft 579 kts 91°
2026-05-05 09:11 33.73433 138.37625 29208 ft 579 kts 91°
2026-05-05 09:12 33.74075 138.47265 29222 ft 581 kts 78°
2026-05-05 09:12 33.76608 138.56394 29235 ft 581 kts 63°
2026-05-05 09:13 33.80704 138.64697 29239 ft 578 kts 54°
2026-05-05 09:13 33.84997 138.72892 29235 ft 580 kts 55°
2026-05-05 09:14 33.89216 138.81177 29251 ft 581 kts 56°
2026-05-05 09:14 33.93393 138.89513 29254 ft 582 kts 56°
2026-05-05 09:15 33.97572 138.97870 29244 ft 582 kts 56°
2026-05-05 09:15 34.01757 139.06236 29258 ft 583 kts 56°
2026-05-05 09:16 34.05940 139.14614 29242 ft 583 kts 56°
2026-05-05 09:16 34.10117 139.23001 29247 ft 583 kts 56°
2026-05-05 09:17 34.14286 139.31391 29245 ft 583 kts 56°
2026-05-05 09:17 34.18455 139.39793 29245 ft 583 kts 56°
2026-05-05 09:18 34.22615 139.48200 29250 ft 583 kts 56°
2026-05-05 09:18 34.26768 139.56613 29260 ft 583 kts 56°
2026-05-05 09:19 34.30917 139.65039 29253 ft 583 kts 56°
2026-05-05 09:19 34.35058 139.73470 29251 ft 583 kts 56°
2026-05-05 09:20 34.39198 139.81918 29257 ft 583 kts 56°
2026-05-05 09:20 34.43328 139.90366 29245 ft 583 kts 56°
2026-05-05 09:21 34.47428 139.98772 29258 ft 583 kts 56°
2026-05-05 09:21 34.51552 140.07248 29252 ft 584 kts 56°
2026-05-05 09:22 34.55695 140.15783 29259 ft 584 kts 56°
2026-05-05 09:22 34.59806 140.24276 29237 ft 584 kts 56°
2026-05-05 09:23 34.63887 140.32724 29258 ft 584 kts 56°
2026-05-05 09:23 34.67989 140.41240 29255 ft 584 kts 56°
2026-05-05 09:24 34.72063 140.49789 29250 ft 585 kts 57°
2026-05-05 09:24 34.76037 140.58437 29271 ft 587 kts 58°
2026-05-05 09:24 34.78026 140.62804 29396 ft 592 kts 58°
2026-05-05 09:25 34.80021 140.67184 29709 ft 592 kts 58°
2026-05-05 09:25 34.82020 140.71567 30052 ft 593 kts 58°
2026-05-05 09:25 34.84022 140.75951 30378 ft 593 kts 57°
2026-05-05 09:25 34.86031 140.80345 30645 ft 593 kts 58°
2026-05-05 09:26 34.88038 140.84734 30923 ft 594 kts 58°
2026-05-05 09:26 34.90047 140.89135 31140 ft 595 kts 58°
2026-05-05 09:26 34.92060 140.93547 31218 ft 597 kts 58°
2026-05-05 09:27 34.96102 141.02430 31272 ft 600 kts 58°
2026-05-05 09:27 35.00123 141.11298 31277 ft 596 kts 58°
2026-05-05 09:28 35.04120 141.20139 31271 ft 594 kts 58°
2026-05-05 09:28 35.08108 141.28974 31320 ft 594 kts 58°
2026-05-05 09:29 35.12091 141.37821 31290 ft 595 kts 58°
2026-05-05 09:29 35.16071 141.46686 31279 ft 595 kts 58°
2026-05-05 09:30 35.20047 141.55567 31273 ft 595 kts 58°
2026-05-05 09:30 35.24016 141.64454 31281 ft 595 kts 58°
2026-05-05 09:31 35.27982 141.73356 31280 ft 596 kts 58°
2026-05-05 09:31 35.31942 141.82270 31296 ft 596 kts 58°
2026-05-05 09:32 35.35896 141.91194 31284 ft 596 kts 59°
2026-05-05 09:32 35.39845 142.00130 31285 ft 597 kts 59°
2026-05-05 09:33 35.43792 142.09087 31284 ft 597 kts 59°
2026-05-05 09:33 35.47704 142.17984 31288 ft 597 kts 59°
2026-05-05 09:34 35.51641 142.26965 31287 ft 597 kts 59°
2026-05-05 09:34 35.55570 142.35950 31291 ft 598 kts 59°
2026-05-05 09:35 35.59497 142.44956 31288 ft 598 kts 59°
2026-05-05 09:35 35.65378 142.58488 31298 ft 599 kts 59°
2026-05-05 09:36 35.69297 142.67538 31293 ft 599 kts 59°
2026-05-05 09:36 35.73208 142.76591 31312 ft 599 kts 59°
2026-05-05 09:37 35.77115 142.85662 31300 ft 600 kts 59°
2026-05-05 09:37 35.81020 142.94751 31297 ft 600 kts 59°
2026-05-05 09:38 35.84916 143.03847 31300 ft 601 kts 59°
2026-05-05 09:38 35.88812 143.12963 31298 ft 601 kts 59°
2026-05-05 09:39 35.92108 143.22454 31305 ft 603 kts 72°
2026-05-05 09:39 35.94133 143.32490 31292 ft 603 kts 84°
2026-05-05 09:40 35.95072 143.42744 31311 ft 602 kts 86°
2026-05-05 09:40 35.96065 143.53016 31320 ft 603 kts 85°
2026-05-05 09:41 35.97126 143.63300 31306 ft 605 kts 85°
2026-05-05 09:41 35.98167 143.73618 31306 ft 606 kts 85°
2026-05-05 09:42 35.99194 143.83951 31282 ft 607 kts 85°
2026-05-05 09:42 36.00216 143.94300 31301 ft 608 kts 85°
2026-05-05 09:43 36.01610 144.04575 31298 ft 608 kts 71°
2026-05-05 09:43 36.03172 144.09415 31311 ft 605 kts 60°
2026-05-05 09:43 36.05250 144.13917 31305 ft 601 kts 51°
2026-05-05 09:44 36.07799 144.17952 31286 ft 590 kts 39°
2026-05-05 09:44 36.10664 144.21560 31317 ft 588 kts 38°
2026-05-05 09:44 36.16383 144.28727 31359 ft 591 kts 39°
2026-05-05 09:45 36.22138 144.36141 31312 ft 595 kts 40°
2026-05-05 09:45 36.27825 144.43616 31310 ft 597 kts 40°
2026-05-05 09:46 36.33515 144.51129 31322 ft 598 kts 40°
2026-05-05 09:46 36.39214 144.58650 31309 ft 599 kts 40°
2026-05-05 09:47 36.44886 144.66139 31306 ft 599 kts 40°
2026-05-05 09:47 36.50591 144.73689 31303 ft 599 kts 40°
2026-05-05 09:48 36.56292 144.81252 31302 ft 600 kts 39°
2026-05-05 09:48 36.61995 144.88837 31305 ft 600 kts 39°
2026-05-05 09:49 36.67692 144.96433 31302 ft 600 kts 39°
2026-05-05 09:49 36.73387 145.04042 31316 ft 600 kts 39°
2026-05-05 09:50 36.79078 145.11663 31305 ft 601 kts 39°
2026-05-05 09:50 36.84770 145.19304 31302 ft 601 kts 39°
2026-05-05 09:51 36.90456 145.26955 31333 ft 601 kts 39°
2026-05-05 09:51 36.96144 145.34627 31301 ft 601 kts 39°
2026-05-05 09:52 37.01819 145.42301 31299 ft 601 kts 39°
2026-05-05 09:52 37.07491 145.49988 31301 ft 601 kts 39°
2026-05-05 09:53 37.13152 145.57678 31310 ft 600 kts 40°
2026-05-05 09:53 37.18770 145.65438 31295 ft 603 kts 43°
2026-05-05 09:54 37.23654 145.74091 31306 ft 611 kts 53°
2026-05-05 09:54 37.28084 145.83198 31347 ft 612 kts 54°
2026-05-05 09:55 37.32513 145.92297 31307 ft 608 kts 53°
2026-05-05 09:55 37.36208 145.99767 31301 ft 604 kts 53°
2026-05-05 09:56 37.41363 146.10128 31301 ft 599 kts 53°
2026-05-05 09:56 37.45762 146.19017 31311 ft 598 kts 53°
2026-05-05 09:57 37.49435 146.26472 31310 ft 598 kts 53°
2026-05-05 09:57 37.53821 146.35399 31302 ft 600 kts 53°
2026-05-05 09:58 37.58211 146.44358 31292 ft 601 kts 54°
2026-05-05 09:58 37.62567 146.53273 31298 ft 601 kts 54°
2026-05-05 09:59 37.66980 146.62327 31296 ft 602 kts 54°
2026-05-05 09:59 37.71328 146.71272 31295 ft 601 kts 54°
2026-05-05 10:00 37.75692 146.80274 31292 ft 601 kts 54°
2026-05-05 10:00 37.80048 146.89284 31308 ft 600 kts 54°
2026-05-05 10:01 37.84392 146.98295 31294 ft 599 kts 54°
2026-05-05 10:01 37.88700 147.07261 31292 ft 590 kts 54°
2026-05-05 10:02 37.92923 147.16076 31295 ft 585 kts 54°
2026-05-05 10:02 37.97156 147.24916 31301 ft 588 kts 54°
2026-05-05 10:03 38.01403 147.33814 31301 ft 591 kts 55°
2026-05-05 10:03 38.05658 147.42761 31303 ft 594 kts 55°
2026-05-05 10:04 38.09919 147.51749 31294 ft 595 kts 55°
2026-05-05 10:04 38.14179 147.60758 31288 ft 594 kts 55°
2026-05-05 10:05 38.18425 147.69762 31284 ft 594 kts 55°
2026-05-05 10:05 38.22657 147.78761 31283 ft 593 kts 55°
2026-05-05 10:06 38.26881 147.87768 31288 ft 592 kts 55°
2026-05-05 10:06 38.31093 147.96772 31292 ft 592 kts 56°
2026-05-05 10:07 38.35300 148.05793 31286 ft 592 kts 56°
2026-05-05 10:07 38.39500 148.14822 31281 ft 592 kts 56°
2026-05-05 10:08 38.43693 148.23863 31310 ft 593 kts 56°
2026-05-05 10:08 38.47884 148.32926 31277 ft 593 kts 56°
2026-05-05 10:09 38.52056 148.41975 31272 ft 590 kts 56°
2026-05-05 10:09 38.56208 148.51004 31274 ft 589 kts 56°
2026-05-05 10:10 38.60319 148.59968 31262 ft 589 kts 56°
2026-05-05 10:10 38.64455 148.69011 31277 ft 589 kts 56°
2026-05-05 10:11 38.68588 148.78074 31291 ft 591 kts 56°
2026-05-05 10:11 38.72730 148.87183 31283 ft 593 kts 56°
2026-05-05 10:12 38.76875 148.96326 31276 ft 594 kts 57°
2026-05-05 10:12 38.81025 149.05505 31288 ft 596 kts 57°
2026-05-05 10:13 38.85175 149.14714 31271 ft 597 kts 57°
2026-05-05 10:13 38.89326 149.23950 31264 ft 597 kts 57°
2026-05-05 10:14 38.93471 149.33201 31262 ft 597 kts 57°
2026-05-05 10:14 38.97606 149.42455 31257 ft 597 kts 57°
2026-05-05 10:15 39.01728 149.51707 31256 ft 596 kts 57°
2026-05-05 10:15 39.05841 149.60968 31272 ft 596 kts 57°
2026-05-05 10:16 39.09947 149.70239 31259 ft 597 kts 57°
2026-05-05 10:16 39.14051 149.79534 31252 ft 597 kts 57°
2026-05-05 10:17 39.18166 149.88842 31269 ft 598 kts 57°
2026-05-05 10:17 39.22284 149.98086 31250 ft 600 kts 57°
2026-05-05 10:18 39.26441 150.07434 31244 ft 601 kts 57°
2026-05-05 10:18 39.30590 150.16810 31253 ft 602 kts 57°
2026-05-05 10:19 39.34739 150.26225 31238 ft 604 kts 58°
2026-05-05 10:19 39.38889 150.35674 31245 ft 605 kts 58°
2026-05-05 10:20 39.43041 150.45154 31239 ft 606 kts 58°
2026-05-05 10:20 39.47192 150.54658 31240 ft 607 kts 58°
2026-05-05 10:21 39.51340 150.64186 31237 ft 608 kts 58°
2026-05-05 10:21 39.55484 150.73735 31275 ft 608 kts 58°
2026-05-05 10:22 39.59622 150.83297 31233 ft 608 kts 58°
2026-05-05 10:22 39.63747 150.92861 31227 ft 607 kts 58°
2026-05-05 10:23 39.67826 151.02348 31225 ft 605 kts 58°
2026-05-05 10:23 39.71921 151.11898 31217 ft 606 kts 58°
2026-05-05 10:24 39.76046 151.21549 31227 ft 607 kts 59°
2026-05-05 10:24 39.80116 151.31102 31226 ft 609 kts 59°
2026-05-05 10:25 39.84216 151.40754 31224 ft 611 kts 59°
2026-05-05 10:25 39.88327 151.50464 31223 ft 614 kts 59°
2026-05-05 10:26 39.92446 151.60223 31217 ft 616 kts 59°
2026-05-05 10:26 39.96570 151.70027 31206 ft 618 kts 59°
2026-05-05 10:27 40.00697 151.79870 31210 ft 620 kts 59°
2026-05-05 10:27 40.04829 151.89757 31210 ft 621 kts 60°
2026-05-05 10:28 40.08958 151.99667 31273 ft 621 kts 60°
2026-05-05 10:28 40.13030 152.09476 31188 ft 608 kts 60°
2026-05-05 10:29 40.17042 152.19170 31217 ft 606 kts 60°
2026-05-05 10:29 40.21053 152.28887 31189 ft 608 kts 60°
2026-05-05 10:30 40.25065 152.38639 31193 ft 609 kts 60°
2026-05-05 10:30 40.29076 152.48423 31209 ft 610 kts 60°
2026-05-05 10:31 40.33086 152.58234 31176 ft 612 kts 61°
2026-05-05 10:31 40.37105 152.68103 31200 ft 615 kts 61°
2026-05-05 10:32 40.41131 152.78021 31189 ft 617 kts 61°
2026-05-05 10:32 40.45162 152.87983 31189 ft 619 kts 61°
2026-05-05 10:33 40.49195 152.97982 31191 ft 620 kts 62°
2026-05-05 10:33 40.53223 153.08007 31181 ft 621 kts 62°
2026-05-05 10:34 40.57249 153.18055 31161 ft 621 kts 62°
2026-05-05 10:34 40.61266 153.28116 31173 ft 622 kts 62°
2026-05-05 10:35 40.65283 153.38213 31171 ft 622 kts 62°
2026-05-05 10:35 40.69282 153.48297 31148 ft 620 kts 62°
2026-05-05 10:36 40.73262 153.58369 31157 ft 619 kts 63°
2026-05-05 10:36 40.77226 153.68433 31155 ft 618 kts 63°
2026-05-05 10:37 40.81186 153.78521 31146 ft 620 kts 63°
2026-05-05 10:37 40.85148 153.88650 31158 ft 623 kts 63°
2026-05-05 10:38 40.89122 153.98845 31144 ft 626 kts 63°
2026-05-05 10:38 40.93113 154.09118 31131 ft 630 kts 64°
2026-05-05 10:39 40.97114 154.19453 31155 ft 633 kts 64°
2026-05-05 10:39 41.01133 154.29873 31146 ft 637 kts 64°
2026-05-05 10:40 41.05132 154.40276 31099 ft 640 kts 65°
2026-05-05 10:40 41.09162 154.50810 31135 ft 642 kts 65°
2026-05-05 10:41 41.13212 154.61401 31206 ft 645 kts 65°
2026-05-05 10:41 41.17207 154.71899 31120 ft 632 kts 65°
2026-05-05 10:42 41.23149 154.87609 31126 ft 638 kts 65°
2026-05-05 10:43 41.27134 154.98191 31128 ft 642 kts 65°
2026-05-05 10:43 41.31136 155.08849 31102 ft 646 kts 66°
2026-05-05 10:44 41.35152 155.19584 31117 ft 649 kts 66°
2026-05-05 10:44 41.39173 155.30374 31116 ft 652 kts 66°
2026-05-05 10:45 41.43193 155.41198 31100 ft 652 kts 66°
2026-05-05 10:45 41.46524 155.50199 31090 ft 651 kts 66°
2026-05-05 10:46 41.50511 155.61009 31096 ft 648 kts 66°
2026-05-05 10:46 41.54477 155.71806 31112 ft 647 kts 67°
2026-05-05 10:47 41.58439 155.82633 31093 ft 650 kts 67°
2026-05-05 10:47 41.62403 155.93502 31069 ft 652 kts 67°
2026-05-05 10:48 41.66366 156.04418 31092 ft 654 kts 68°
2026-05-05 10:48 41.70333 156.15390 31077 ft 655 kts 68°
2026-05-05 10:49 41.74296 156.26385 31044 ft 656 kts 68°
2026-05-05 10:49 41.78221 156.37314 31075 ft 655 kts 68°
2026-05-05 10:50 41.82160 156.48331 31067 ft 656 kts 68°
2026-05-05 10:50 41.86090 156.59362 31037 ft 655 kts 69°
2026-05-05 10:51 41.90005 156.70396 31053 ft 654 kts 69°
2026-05-05 10:51 41.93902 156.81424 31049 ft 654 kts 69°
2026-05-05 10:52 41.97788 156.92461 31027 ft 653 kts 69°
2026-05-05 10:52 42.01656 157.03491 31043 ft 651 kts 69°
2026-05-05 10:53 42.05505 157.14511 31039 ft 651 kts 69°
2026-05-05 10:53 42.09338 157.25531 31010 ft 649 kts 69°
2026-05-05 10:54 42.13152 157.36535 31057 ft 647 kts 70°
2026-05-05 10:54 42.16949 157.47539 31026 ft 648 kts 70°
2026-05-05 10:55 42.20734 157.58552 30998 ft 647 kts 70°
2026-05-05 10:55 42.24502 157.69553 31010 ft 645 kts 70°
2026-05-05 10:56 42.28254 157.80553 31006 ft 645 kts 70°
2026-05-05 10:56 42.31989 157.91549 31003 ft 643 kts 70°
2026-05-05 10:57 42.35709 158.02543 31004 ft 642 kts 70°
2026-05-05 10:57 42.39406 158.13517 30997 ft 641 kts 71°
2026-05-05 10:58 42.43089 158.24491 30990 ft 640 kts 71°
2026-05-05 10:58 42.46729 158.35376 30994 ft 638 kts 71°
2026-05-05 10:59 42.50371 158.46317 30985 ft 637 kts 71°
2026-05-05 10:59 42.53997 158.57253 30990 ft 636 kts 71°
2026-05-05 11:00 42.57611 158.68197 30985 ft 635 kts 71°
2026-05-05 11:00 42.61214 158.79150 31017 ft 636 kts 71°
2026-05-05 11:01 42.64813 158.90142 30958 ft 638 kts 71°
2026-05-05 11:01 42.68408 159.01160 30960 ft 638 kts 71°
2026-05-05 11:02 42.71999 159.12208 30969 ft 639 kts 71°
2026-05-05 11:02 42.75580 159.23275 30945 ft 639 kts 71°
2026-05-05 11:03 42.79145 159.34335 30949 ft 638 kts 71°
2026-05-05 11:03 42.82698 159.45405 30943 ft 637 kts 71°
2026-05-05 11:04 42.86232 159.56465 30918 ft 636 kts 71°
2026-05-05 11:04 42.89747 159.67506 30924 ft 634 kts 71°
2026-05-05 11:05 42.93241 159.78533 30933 ft 633 kts 72°
2026-05-05 11:05 42.96718 159.89553 30915 ft 631 kts 72°
2026-05-05 11:06 42.99933 160.00649 30901 ft 624 kts 79°
2026-05-05 11:06 43.01898 160.12028 30909 ft 611 kts 88°
2026-05-05 11:07 43.03417 160.23365 30884 ft 610 kts 88°
2026-05-05 11:07 43.04998 160.34828 30903 ft 610 kts 87°
2026-05-05 11:08 43.06614 160.46216 30905 ft 610 kts 87°
2026-05-05 11:08 43.08231 160.57596 30876 ft 609 kts 87°
2026-05-05 11:09 43.09827 160.68951 30896 ft 608 kts 87°
2026-05-05 11:09 43.11404 160.80306 30895 ft 607 kts 87°
2026-05-05 11:10 43.12965 160.91654 30862 ft 606 kts 87°
2026-05-05 11:10 43.14514 161.02984 30877 ft 605 kts 87°
2026-05-05 11:11 43.16039 161.14231 30885 ft 604 kts 87°
2026-05-05 11:11 43.17563 161.25552 30855 ft 604 kts 87°
2026-05-05 11:12 43.19074 161.36860 30872 ft 603 kts 87°
2026-05-05 11:12 43.20573 161.48173 30863 ft 603 kts 87°
2026-05-05 11:13 43.22059 161.59478 30846 ft 603 kts 87°
2026-05-05 11:13 43.23533 161.70782 30860 ft 602 kts 87°
2026-05-05 11:14 43.24995 161.82080 30864 ft 601 kts 87°
2026-05-05 11:14 43.26444 161.93375 30857 ft 601 kts 87°
2026-05-05 11:15 43.27882 162.04674 30857 ft 601 kts 88°
2026-05-05 11:15 43.29308 162.15970 30853 ft 601 kts 88°
2026-05-05 11:16 43.30723 162.27274 30819 ft 601 kts 88°
2026-05-05 11:16 43.32125 162.38563 30846 ft 599 kts 88°
2026-05-05 11:17 43.33515 162.49847 30851 ft 599 kts 88°
2026-05-05 11:17 43.34891 162.61117 30812 ft 598 kts 88°
2026-05-05 11:18 43.36244 162.72295 30844 ft 596 kts 88°
2026-05-05 11:18 43.37594 162.83536 30838 ft 596 kts 88°
2026-05-05 11:19 43.38929 162.94765 30845 ft 595 kts 88°
2026-05-05 11:19 43.40252 163.05988 30841 ft 594 kts 87°
2026-05-05 11:20 43.41565 163.17202 30824 ft 594 kts 88°
2026-05-05 11:20 43.42864 163.28428 30844 ft 594 kts 88°
2026-05-05 11:21 43.44151 163.39641 30830 ft 593 kts 87°
2026-05-05 11:21 43.45428 163.50852 30838 ft 593 kts 88°
2026-05-05 11:22 43.46694 163.62065 30834 ft 593 kts 88°
2026-05-05 11:22 43.47946 163.73271 30819 ft 591 kts 87°
2026-05-05 11:23 43.49186 163.84453 30818 ft 591 kts 88°
2026-05-05 11:23 43.50413 163.95638 30824 ft 590 kts 88°
2026-05-05 11:24 43.51627 164.06805 30826 ft 589 kts 87°
2026-05-05 11:24 43.52829 164.17960 30823 ft 588 kts 87°
2026-05-05 11:25 43.54017 164.29097 30818 ft 587 kts 88°
2026-05-05 11:25 43.55193 164.40223 30812 ft 586 kts 87°
2026-05-05 11:26 43.56357 164.51346 30820 ft 586 kts 87°
2026-05-05 11:26 43.57502 164.62384 30818 ft 586 kts 88°
2026-05-05 11:27 43.58643 164.73504 30762 ft 585 kts 87°
2026-05-05 11:27 43.59771 164.84597 30815 ft 583 kts 87°
2026-05-05 11:28 43.60887 164.95675 30814 ft 583 kts 87°
2026-05-05 11:28 43.61989 165.06745 30817 ft 582 kts 87°
2026-05-05 11:29 43.63081 165.17806 30819 ft 581 kts 87°
2026-05-05 11:29 43.64150 165.28858 30824 ft 580 kts 87°
2026-05-05 11:30 43.65231 165.39884 30813 ft 580 kts 87°
2026-05-05 11:30 43.66291 165.50907 30813 ft 579 kts 87°
2026-05-05 11:31 43.67335 165.61925 30823 ft 579 kts 88°
2026-05-05 11:31 43.68360 165.72966 30825 ft 580 kts 88°
2026-05-05 11:32 43.69381 165.84017 30806 ft 580 kts 87°
2026-05-05 11:32 43.70395 165.95076 30815 ft 580 kts 87°
2026-05-05 11:33 43.71398 166.06128 30818 ft 580 kts 87°
2026-05-05 11:33 43.72384 166.17119 30793 ft 580 kts 87°
2026-05-05 11:34 43.73206 166.26368 30808 ft 578 kts 87°
2026-05-05 11:34 43.74338 166.39263 30803 ft 577 kts 87°
2026-05-05 11:35 43.75132 166.48422 30822 ft 576 kts 87°
2026-05-05 11:35 43.76082 166.59422 30811 ft 575 kts 87°
2026-05-05 11:36 43.77015 166.70399 30807 ft 574 kts 87°
2026-05-05 11:36 43.77929 166.81358 30817 ft 573 kts 87°
2026-05-05 11:37 43.78836 166.92309 30799 ft 572 kts 87°
2026-05-05 11:37 43.79740 167.03246 30819 ft 572 kts 87°
2026-05-05 11:38 43.80622 167.14172 30811 ft 571 kts 87°
2026-05-05 11:38 43.81490 167.25095 30832 ft 570 kts 87°
2026-05-05 11:39 43.82359 167.36007 30823 ft 570 kts 87°
2026-05-05 11:39 43.83213 167.46917 30808 ft 570 kts 87°
2026-05-05 11:40 43.84055 167.57832 30831 ft 569 kts 87°
2026-05-05 11:40 43.84889 167.68726 30826 ft 569 kts 87°
2026-05-05 11:41 43.85696 167.79618 30846 ft 568 kts 87°
2026-05-05 11:41 43.86501 167.90440 30802 ft 569 kts 87°
2026-05-05 11:42 43.87305 168.01343 30799 ft 569 kts 87°
2026-05-05 11:42 43.88097 168.12239 30819 ft 568 kts 87°
2026-05-05 11:43 43.88863 168.23141 30806 ft 568 kts 87°
2026-05-05 11:43 43.89632 168.34029 30840 ft 568 kts 86°
2026-05-05 11:44 43.90392 168.44922 30811 ft 568 kts 87°
2026-05-05 11:44 43.91132 168.55800 30841 ft 566 kts 86°
2026-05-05 11:45 43.91879 168.66668 30802 ft 567 kts 86°
2026-05-05 11:45 43.92596 168.77529 30835 ft 565 kts 87°
2026-05-05 11:46 43.93291 168.88377 30805 ft 564 kts 87°
2026-05-05 11:46 43.93998 168.99205 30844 ft 563 kts 86°
2026-05-05 11:47 43.94698 169.10036 30828 ft 564 kts 87°
2026-05-05 11:47 43.95370 169.20865 30843 ft 564 kts 87°
2026-05-05 11:48 43.96352 169.37136 30818 ft 564 kts 87°
2026-05-05 11:48 43.97012 169.47981 30839 ft 564 kts 87°
2026-05-05 11:49 43.97667 169.58832 30785 ft 564 kts 87°
2026-05-05 11:49 43.98290 169.69658 30844 ft 562 kts 87°
2026-05-05 11:50 43.98908 169.80467 30828 ft 562 kts 86°
2026-05-05 11:50 43.99519 169.91281 30846 ft 561 kts 86°
2026-05-05 11:51 43.99936 170.02079 30848 ft 559 kts 93°
2026-05-05 11:51 43.99384 170.12812 30845 ft 557 kts 97°
2026-05-05 11:52 43.98704 170.23518 30858 ft 557 kts 97°
2026-05-05 11:52 43.98064 170.34161 30883 ft 557 kts 96°
2026-05-05 11:53 43.97424 170.44873 30881 ft 557 kts 96°
2026-05-05 11:53 43.96785 170.55677 30863 ft 558 kts 96°
2026-05-05 11:54 43.96155 170.66325 30891 ft 557 kts 96°
2026-05-05 11:54 43.95499 170.77035 30841 ft 557 kts 96°
2026-05-05 11:55 43.94824 170.87730 30888 ft 555 kts 96°
2026-05-05 11:55 43.94131 170.98386 30896 ft 554 kts 96°
2026-05-05 11:56 43.93451 171.09028 30906 ft 554 kts 96°
2026-05-05 11:56 43.92771 171.19674 30875 ft 555 kts 96°
2026-05-05 11:57 43.92067 171.30328 30897 ft 554 kts 96°
2026-05-05 11:57 43.91354 171.40981 30897 ft 555 kts 96°
2026-05-05 11:58 43.90633 171.51643 30900 ft 556 kts 96°
2026-05-05 11:58 43.89893 171.62307 30918 ft 555 kts 96°
2026-05-05 11:59 43.89166 171.72966 30901 ft 556 kts 96°
2026-05-05 11:59 43.88413 171.83609 30932 ft 554 kts 96°
2026-05-05 12:00 43.87631 171.94227 30948 ft 554 kts 96°
2026-05-05 12:00 43.86851 172.04852 30943 ft 554 kts 96°
2026-05-05 12:01 43.86073 172.15468 30966 ft 554 kts 96°
2026-05-05 12:01 43.85279 172.26077 30978 ft 554 kts 96°
2026-05-05 12:02 43.84468 172.36677 30971 ft 553 kts 96°
2026-05-05 12:02 43.83648 172.47269 30973 ft 553 kts 96°
2026-05-05 12:03 43.82824 172.57851 30971 ft 553 kts 96°
2026-05-05 12:03 43.82014 172.68444 30974 ft 553 kts 96°
2026-05-05 12:04 43.81159 172.79025 30977 ft 553 kts 96°
2026-05-05 12:04 43.80319 172.89601 30993 ft 553 kts 96°
2026-05-05 12:05 43.79464 173.00177 31003 ft 552 kts 96°
2026-05-05 12:05 43.78589 173.10713 31033 ft 551 kts 96°
2026-05-05 12:06 43.77712 173.21251 31024 ft 552 kts 96°
2026-05-05 12:06 43.76825 173.31801 31016 ft 552 kts 96°
2026-05-05 12:07 43.75923 173.42347 31037 ft 552 kts 96°
2026-05-05 12:07 43.75017 173.52890 31020 ft 553 kts 96°
2026-05-05 12:08 43.74100 173.63437 31025 ft 553 kts 96°
2026-05-05 12:08 43.73180 173.73933 31035 ft 554 kts 96°
2026-05-05 12:09 43.72243 173.84494 31048 ft 554 kts 96°
2026-05-05 12:09 43.71287 173.95070 31057 ft 554 kts 96°
2026-05-05 12:10 43.70315 174.05638 31055 ft 555 kts 96°
2026-05-05 12:10 43.69368 174.16209 31115 ft 553 kts 96°
2026-05-05 12:11 43.68395 174.26771 31028 ft 555 kts 96°
2026-05-05 12:11 43.67396 174.37325 31057 ft 554 kts 95°
2026-05-05 12:12 43.66398 174.47884 31066 ft 554 kts 96°
2026-05-05 12:12 43.65390 174.58442 31078 ft 554 kts 96°
2026-05-05 12:13 43.64371 174.68990 31093 ft 555 kts 95°
2026-05-05 12:13 43.63340 174.79558 31082 ft 556 kts 95°
2026-05-05 12:14 43.62295 174.90141 31092 ft 557 kts 96°
2026-05-05 12:14 43.61232 175.00733 31092 ft 557 kts 96°
2026-05-05 12:15 43.60190 175.11330 31091 ft 558 kts 96°
2026-05-05 12:15 43.59122 175.21936 31104 ft 558 kts 95°
2026-05-05 12:16 43.58040 175.32563 31093 ft 561 kts 96°
2026-05-05 12:16 43.56929 175.43206 31130 ft 562 kts 96°
2026-05-05 12:17 43.55815 175.53887 31117 ft 563 kts 95°
2026-05-05 12:17 43.54691 175.64572 31106 ft 564 kts 96°
2026-05-05 12:18 43.53555 175.75253 31114 ft 563 kts 96°
2026-05-05 12:18 43.52420 175.85840 31124 ft 562 kts 95°
2026-05-05 12:19 43.51271 175.96477 31117 ft 561 kts 95°
2026-05-05 12:19 43.50110 176.07085 31121 ft 562 kts 95°
2026-05-05 12:20 43.49527 176.12427 31253 ft 565 kts 95°
2026-05-05 12:20 43.48941 176.17772 31566 ft 564 kts 96°
2026-05-05 12:20 43.48353 176.23101 31980 ft 562 kts 95°
2026-05-05 12:20 43.47758 176.28407 32351 ft 559 kts 95°
2026-05-05 12:21 43.47174 176.33692 32680 ft 558 kts 95°
2026-05-05 12:21 43.46586 176.38975 32963 ft 558 kts 95°
2026-05-05 12:21 43.45391 176.49562 33060 ft 560 kts 95°
2026-05-05 12:22 43.44394 176.58338 33103 ft 558 kts 95°
2026-05-05 12:22 43.43177 176.68868 33127 ft 557 kts 95°
2026-05-05 12:23 43.41970 176.79375 33143 ft 556 kts 95°
2026-05-05 12:23 43.40746 176.89877 33128 ft 556 kts 95°
2026-05-05 12:24 43.39503 177.00370 33208 ft 555 kts 95°
2026-05-05 12:24 43.38271 177.10847 33176 ft 556 kts 95°
2026-05-05 12:25 43.37022 177.21356 33095 ft 559 kts 95°
2026-05-05 12:25 43.35750 177.31887 33111 ft 559 kts 95°
2026-05-05 12:26 43.34467 177.42418 33134 ft 560 kts 95°
2026-05-05 12:26 43.33186 177.52900 33137 ft 560 kts 95°
2026-05-05 12:27 43.31881 177.63452 33140 ft 561 kts 95°
2026-05-05 12:27 43.30566 177.74007 33159 ft 561 kts 95°
2026-05-05 12:28 43.29243 177.84560 33137 ft 561 kts 95°
2026-05-05 12:28 43.27913 177.95099 33139 ft 560 kts 95°
2026-05-05 12:29 43.26574 178.05629 33131 ft 560 kts 95°
2026-05-05 12:29 43.25226 178.16146 33140 ft 560 kts 95°
2026-05-05 12:30 43.23865 178.26665 33138 ft 560 kts 95°
2026-05-05 12:30 43.22495 178.37178 33132 ft 560 kts 95°
2026-05-05 12:31 43.21134 178.47688 33168 ft 560 kts 95°
2026-05-05 12:31 43.19740 178.58210 33137 ft 561 kts 95°
2026-05-05 12:32 43.18338 178.68735 33134 ft 562 kts 95°
2026-05-05 12:32 43.16915 178.79270 33105 ft 562 kts 95°
2026-05-05 12:33 43.15509 178.89805 33121 ft 563 kts 94°
2026-05-05 12:33 43.14098 179.00365 33117 ft 564 kts 94°
2026-05-05 12:34 43.12650 179.10931 33125 ft 565 kts 95°
2026-05-05 12:34 43.11153 179.21497 33121 ft 566 kts 95°
2026-05-05 12:35 43.09670 179.32089 33152 ft 567 kts 94°
2026-05-05 12:35 43.08194 179.42705 33119 ft 569 kts 95°
2026-05-05 12:36 43.06698 179.53336 33122 ft 569 kts 95°
2026-05-05 12:36 43.05198 179.63971 33155 ft 570 kts 94°
2026-05-05 12:37 43.03674 179.74616 33121 ft 570 kts 94°
2026-05-05 12:37 43.02141 179.85236 33091 ft 569 kts 95°
2026-05-05 12:38 43.00607 179.95829 33106 ft 568 kts 95°
2026-05-05 12:38 42.99050 -179.93601 33149 ft 568 kts 94°
2026-05-05 12:39 42.97437 -179.83041 33117 ft 568 kts 95°
2026-05-05 12:39 42.95797 -179.72432 33108 ft 567 kts 95°
2026-05-05 12:40 42.94178 -179.61979 33115 ft 566 kts 95°
2026-05-05 12:40 42.92550 -179.51476 33111 ft 566 kts 95°
2026-05-05 12:41 42.90912 -179.40974 33110 ft 566 kts 95°
2026-05-05 12:41 42.89258 -179.30480 33119 ft 566 kts 95°
2026-05-05 12:42 42.87599 -179.19993 33139 ft 566 kts 95°
2026-05-05 12:42 42.85936 -179.09477 33099 ft 568 kts 95°
2026-05-05 12:43 42.84250 -178.98951 33108 ft 569 kts 95°
2026-05-05 12:43 42.82548 -178.88423 33099 ft 569 kts 95°
2026-05-05 12:44 42.80834 -178.77878 33101 ft 571 kts 95°
2026-05-05 12:44 42.79113 -178.67331 33093 ft 571 kts 95°
2026-05-05 12:45 42.77380 -178.56780 33091 ft 571 kts 95°
2026-05-05 12:45 42.75637 -178.46234 33125 ft 571 kts 94°
2026-05-05 12:46 42.73883 -178.35689 33088 ft 571 kts 94°
2026-05-05 12:46 42.72121 -178.25154 33083 ft 571 kts 94°
2026-05-05 12:47 42.70349 -178.14623 33081 ft 571 kts 95°
2026-05-05 12:47 42.68569 -178.04110 33103 ft 571 kts 94°
2026-05-05 12:48 42.66777 -177.93588 33077 ft 571 kts 94°
2026-05-05 12:48 42.64976 -177.83074 33069 ft 571 kts 94°
2026-05-05 12:49 42.63165 -177.72567 33071 ft 571 kts 95°
2026-05-05 12:49 42.61344 -177.62058 33063 ft 572 kts 94°
2026-05-05 12:50 42.59510 -177.51540 33061 ft 573 kts 94°
2026-05-05 12:50 42.57666 -177.41025 33051 ft 573 kts 94°
2026-05-05 12:51 42.55812 -177.30519 33091 ft 573 kts 94°
2026-05-05 12:51 42.53947 -177.20007 33056 ft 573 kts 94°
2026-05-05 12:52 42.52072 -177.09496 33047 ft 574 kts 94°
2026-05-05 12:52 42.50186 -176.98988 33047 ft 574 kts 94°
2026-05-05 12:53 42.48290 -176.88484 33062 ft 575 kts 94°
2026-05-05 12:53 42.46393 -176.78034 33037 ft 575 kts 94°
2026-05-05 12:54 42.43514 -176.62286 33029 ft 574 kts 94°
2026-05-05 12:55 42.41583 -176.51795 33062 ft 575 kts 93°
2026-05-05 12:55 42.39641 -176.41300 33023 ft 575 kts 94°
2026-05-05 12:56 42.37690 -176.30823 33018 ft 574 kts 94°
2026-05-05 12:56 42.35733 -176.20366 33018 ft 574 kts 94°
2026-05-05 12:57 42.33766 -176.09912 32997 ft 574 kts 93°
2026-05-05 12:57 42.31790 -175.99465 33022 ft 573 kts 93°
2026-05-05 12:58 42.29805 -175.89031 33007 ft 573 kts 93°
2026-05-05 12:58 42.27812 -175.78609 33000 ft 573 kts 93°
2026-05-05 12:59 42.25809 -175.68192 33015 ft 573 kts 94°
2026-05-05 12:59 42.23797 -175.57780 32991 ft 574 kts 94°
2026-05-05 13:00 42.20757 -175.42156 33061 ft 574 kts 94°
2026-05-05 13:01 42.16675 -175.21371 32988 ft 576 kts 93°
2026-05-05 13:01 42.14611 -175.10946 32976 ft 576 kts 93°
2026-05-05 13:02 42.12539 -175.00539 33014 ft 576 kts 92°
2026-05-05 13:02 42.10457 -174.90128 32976 ft 575 kts 92°
2026-05-05 13:03 42.08369 -174.79744 32961 ft 574 kts 92°
2026-05-05 13:03 42.06276 -174.69393 32961 ft 573 kts 93°
2026-05-05 13:04 42.04177 -174.59054 32971 ft 573 kts 92°
2026-05-05 13:04 42.02069 -174.48725 32953 ft 572 kts 92°
2026-05-05 13:05 41.99954 -174.38417 32949 ft 571 kts 92°
2026-05-05 13:05 41.97833 -174.28131 33029 ft 571 kts 92°
2026-05-05 13:06 41.95700 -174.17831 32946 ft 573 kts 91°
2026-05-05 13:06 41.93556 -174.07530 32945 ft 573 kts 91°
2026-05-05 13:07 41.91401 -173.97236 32935 ft 573 kts 92°
2026-05-05 13:07 41.89235 -173.86943 32993 ft 573 kts 91°
2026-05-05 13:08 41.87058 -173.76636 32940 ft 574 kts 91°
2026-05-05 13:08 41.85239 -173.68071 32925 ft 574 kts 92°
2026-05-05 13:09 41.83043 -173.57781 32916 ft 574 kts 92°
2026-05-05 13:09 41.80841 -173.47510 32956 ft 574 kts 91°
2026-05-05 13:10 41.78630 -173.37240 32904 ft 573 kts 91°
2026-05-05 13:10 41.76413 -173.27001 32905 ft 571 kts 91°
2026-05-05 13:11 41.74193 -173.16791 32907 ft 571 kts 91°
2026-05-05 13:11 41.71967 -173.06595 32937 ft 571 kts 91°
2026-05-05 13:12 41.69729 -172.96397 32897 ft 570 kts 91°
2026-05-05 13:12 41.67501 -172.86301 32892 ft 569 kts 91°
2026-05-05 13:13 41.65256 -172.76168 32977 ft 568 kts 91°
2026-05-05 13:13 41.63004 -172.66049 32888 ft 568 kts 91°
2026-05-05 13:14 41.60746 -172.55958 32873 ft 565 kts 91°
2026-05-05 13:14 41.58489 -172.45920 32883 ft 563 kts 91°
2026-05-05 13:15 41.56232 -172.35911 32925 ft 562 kts 92°
2026-05-05 13:15 41.53969 -172.25920 32872 ft 562 kts 93°
2026-05-05 13:16 41.51700 -172.15965 32867 ft 560 kts 93°
2026-05-05 13:16 41.49429 -172.06039 32853 ft 559 kts 92°
2026-05-05 13:17 41.47153 -171.96125 32867 ft 559 kts 92°
2026-05-05 13:17 41.44867 -171.86204 32867 ft 561 kts 92°
2026-05-05 13:18 41.42578 -171.76320 32856 ft 562 kts 93°
2026-05-05 13:18 41.40258 -171.66355 32859 ft 564 kts 93°
2026-05-05 13:19 41.37921 -171.56371 32859 ft 565 kts 95°
2026-05-05 13:19 41.35561 -171.46336 32849 ft 563 kts 95°
2026-05-05 13:20 41.33238 -171.36498 32842 ft 560 kts 95°
2026-05-05 13:20 41.30899 -171.26634 32908 ft 558 kts 96°
2026-05-05 13:21 41.28564 -171.16824 32830 ft 555 kts 96°
2026-05-05 13:21 41.26237 -171.07078 32833 ft 552 kts 96°
2026-05-05 13:22 41.23909 -170.97377 32825 ft 550 kts 96°
2026-05-05 13:22 41.21581 -170.87715 32898 ft 549 kts 98°
2026-05-05 13:23 41.19248 -170.78073 32788 ft 548 kts 98°
2026-05-05 13:23 41.16915 -170.68472 32823 ft 546 kts 97°
2026-05-05 13:24 41.14577 -170.58877 32820 ft 547 kts 98°
2026-05-05 13:24 41.12226 -170.49277 32878 ft 548 kts 99°
2026-05-05 13:25 41.09858 -170.39663 32807 ft 548 kts 99°
2026-05-05 13:25 41.07490 -170.30076 32813 ft 547 kts 99°
2026-05-05 13:26 41.05119 -170.20518 32810 ft 546 kts 99°
2026-05-05 13:26 41.02746 -170.10977 32832 ft 545 kts 100°
2026-05-05 13:27 41.00840 -170.01464 32805 ft 529 kts 89°
2026-05-05 13:27 41.00254 -169.91911 32799 ft 513 kts 79°
2026-05-05 13:28 41.00653 -169.82581 32794 ft 506 kts 76°
2026-05-05 13:28 41.01092 -169.73273 32807 ft 508 kts 77°
2026-05-05 13:29 41.01495 -169.63931 32795 ft 508 kts 78°
2026-05-05 13:29 41.01870 -169.54576 32786 ft 509 kts 78°
2026-05-05 13:30 41.02231 -169.45209 32786 ft 510 kts 78°
2026-05-05 13:30 41.02586 -169.35822 32787 ft 511 kts 79°
2026-05-05 13:31 41.02936 -169.26422 32771 ft 511 kts 79°
2026-05-05 13:31 41.03284 -169.17019 32772 ft 511 kts 79°
2026-05-05 13:32 41.03620 -169.07608 32764 ft 511 kts 79°
2026-05-05 13:32 41.03947 -168.98197 32771 ft 512 kts 80°
2026-05-05 13:33 41.04267 -168.88776 32768 ft 512 kts 80°
2026-05-05 13:33 41.04579 -168.79365 32751 ft 511 kts 81°
2026-05-05 13:34 41.04883 -168.69967 32756 ft 510 kts 81°
2026-05-05 13:34 41.05181 -168.60575 32749 ft 511 kts 82°
2026-05-05 13:35 41.05472 -168.51180 32753 ft 510 kts 82°
2026-05-05 13:35 41.05754 -168.41788 32749 ft 510 kts 82°
2026-05-05 13:36 41.06027 -168.32403 32748 ft 510 kts 82°
2026-05-05 13:36 41.06293 -168.23009 32740 ft 510 kts 82°
2026-05-05 13:37 41.06550 -168.13677 32742 ft 510 kts 82°
2026-05-05 13:37 41.06802 -168.04276 32734 ft 511 kts 82°
2026-05-05 13:38 41.07046 -167.94867 32750 ft 511 kts 82°
2026-05-05 13:38 41.07283 -167.85450 32736 ft 512 kts 83°
2026-05-05 13:39 41.07512 -167.76018 32727 ft 512 kts 83°
2026-05-05 13:39 41.07734 -167.66581 32727 ft 512 kts 83°
2026-05-05 13:40 41.07948 -167.57135 32746 ft 513 kts 84°
2026-05-05 13:40 41.08155 -167.47682 32720 ft 513 kts 84°
2026-05-05 13:41 41.08353 -167.38226 32726 ft 513 kts 84°
2026-05-05 13:41 41.08544 -167.28769 32711 ft 513 kts 84°
2026-05-05 13:42 41.08727 -167.19322 32720 ft 513 kts 85°
2026-05-05 13:42 41.08903 -167.09879 32708 ft 512 kts 85°
2026-05-05 13:43 41.09070 -167.00445 32704 ft 512 kts 85°
2026-05-05 13:43 41.09229 -166.91020 32700 ft 511 kts 85°
2026-05-05 13:44 41.09382 -166.81595 32711 ft 511 kts 86°
2026-05-05 13:44 41.09526 -166.72178 32697 ft 511 kts 86°
2026-05-05 13:45 41.09662 -166.62753 32691 ft 511 kts 86°
2026-05-05 13:45 41.09791 -166.53345 32691 ft 511 kts 86°
2026-05-05 13:46 41.09913 -166.43935 32690 ft 510 kts 87°
2026-05-05 13:46 41.10026 -166.34523 32680 ft 510 kts 87°
2026-05-05 13:47 41.10131 -166.25181 32682 ft 510 kts 87°
2026-05-05 13:47 41.10229 -166.15782 32678 ft 510 kts 87°
2026-05-05 13:48 41.10319 -166.06386 32679 ft 509 kts 88°
2026-05-05 13:48 41.10402 -165.97000 32671 ft 509 kts 88°
2026-05-05 13:49 41.10477 -165.87623 32668 ft 508 kts 88°
2026-05-05 13:49 41.10544 -165.78256 32669 ft 508 kts 89°
2026-05-05 13:50 41.10603 -165.68900 32662 ft 507 kts 89°
2026-05-05 13:50 41.10656 -165.59568 32657 ft 506 kts 89°
2026-05-05 13:51 41.10701 -165.50255 32658 ft 505 kts 89°
2026-05-05 13:51 41.10737 -165.40950 32650 ft 504 kts 90°
2026-05-05 13:52 41.10766 -165.31661 32651 ft 504 kts 90°
2026-05-05 13:52 41.10788 -165.22379 32651 ft 503 kts 90°
2026-05-05 13:53 41.10803 -165.13094 32649 ft 503 kts 90°
2026-05-05 13:53 41.10810 -165.03812 32634 ft 503 kts 91°
2026-05-05 13:54 41.10809 -164.94532 32646 ft 503 kts 91°
2026-05-05 13:54 41.10802 -164.85247 32643 ft 504 kts 91°
2026-05-05 13:55 41.10786 -164.75961 32649 ft 504 kts 91°
2026-05-05 13:55 41.10763 -164.66665 32649 ft 504 kts 91°
2026-05-05 13:56 41.10732 -164.57368 32645 ft 504 kts 91°
2026-05-05 13:56 41.10694 -164.48063 32649 ft 504 kts 91°
2026-05-05 13:57 41.10649 -164.38826 32643 ft 505 kts 92°
2026-05-05 13:57 41.10597 -164.29528 32638 ft 505 kts 92°
2026-05-05 13:58 41.10537 -164.20222 32657 ft 505 kts 92°
2026-05-05 13:58 41.10469 -164.10920 32645 ft 505 kts 92°
2026-05-05 13:59 41.10367 -163.98541 32625 ft 504 kts 93°
2026-05-05 14:00 41.10237 -163.84602 32648 ft 504 kts 94°
2026-05-05 14:00 41.10141 -163.75325 32656 ft 504 kts 94°
2026-05-05 14:01 41.10036 -163.66030 32653 ft 504 kts 94°
2026-05-05 14:01 41.09926 -163.56730 32645 ft 504 kts 94°
2026-05-05 14:02 41.09807 -163.47429 32653 ft 505 kts 94°
2026-05-05 14:02 41.09680 -163.38129 32651 ft 505 kts 94°
2026-05-05 14:03 41.09546 -163.28822 32621 ft 505 kts 95°
2026-05-05 14:03 41.09406 -163.19521 32654 ft 505 kts 95°
2026-05-05 14:04 41.09257 -163.10219 32652 ft 505 kts 95°
2026-05-05 14:04 41.09100 -163.00931 32656 ft 505 kts 95°
2026-05-05 14:05 41.08937 -162.91626 32648 ft 505 kts 95°
2026-05-05 14:05 41.08766 -162.82327 32661 ft 505 kts 96°
2026-05-05 14:06 41.08587 -162.73025 32669 ft 505 kts 96°
2026-05-05 14:06 41.08401 -162.63730 32680 ft 505 kts 96°
2026-05-05 14:07 41.08207 -162.54434 32666 ft 504 kts 96°
2026-05-05 14:07 41.08006 -162.45142 32681 ft 505 kts 96°
2026-05-05 14:08 41.07797 -162.35844 32693 ft 505 kts 96°
2026-05-05 14:08 41.07581 -162.26542 32696 ft 505 kts 96°
2026-05-05 14:09 41.07357 -162.17238 32691 ft 505 kts 96°
2026-05-05 14:09 41.07125 -162.07933 32707 ft 506 kts 96°
2026-05-05 14:10 41.06888 -161.98678 32707 ft 506 kts 96°
2026-05-05 14:10 41.06640 -161.89296 32682 ft 506 kts 97°
2026-05-05 14:11 41.06387 -161.80037 32712 ft 506 kts 97°
2026-05-05 14:11 41.06125 -161.70706 32716 ft 507 kts 97°
2026-05-05 14:12 41.05855 -161.61366 32726 ft 507 kts 97°
2026-05-05 14:12 41.05578 -161.52018 32712 ft 507 kts 97°
2026-05-05 14:13 41.05293 -161.42682 32736 ft 508 kts 97°
2026-05-05 14:13 41.05000 -161.33335 32736 ft 508 kts 97°
2026-05-05 14:14 41.04699 -161.23982 32736 ft 508 kts 97°
2026-05-05 14:14 41.04391 -161.14624 32754 ft 508 kts 97°
2026-05-05 14:15 41.04076 -161.05268 32757 ft 508 kts 97°
2026-05-05 14:15 41.03753 -160.95928 32767 ft 508 kts 97°
2026-05-05 14:16 41.03423 -160.86595 32742 ft 507 kts 98°
2026-05-05 14:16 41.03087 -160.77287 32769 ft 506 kts 98°
2026-05-05 14:17 41.02741 -160.67972 32785 ft 506 kts 98°
2026-05-05 14:17 41.02389 -160.58662 32791 ft 507 kts 98°
2026-05-05 14:18 41.02031 -160.49338 32779 ft 506 kts 98°
2026-05-05 14:18 41.01662 -160.40020 32801 ft 507 kts 98°
2026-05-05 14:19 41.01286 -160.30695 32816 ft 508 kts 98°
2026-05-05 14:19 41.00906 -160.21419 32818 ft 508 kts 98°
2026-05-05 14:20 41.00517 -160.12086 32819 ft 506 kts 99°
2026-05-05 14:20 41.00122 -160.02799 32824 ft 504 kts 99°
2026-05-05 14:21 40.99680 -159.93558 32829 ft 502 kts 100°
2026-05-05 14:21 40.99146 -159.84368 32798 ft 500 kts 101°
2026-05-05 14:22 40.98600 -159.75221 32843 ft 498 kts 101°
2026-05-05 14:22 40.98059 -159.66096 32859 ft 497 kts 101°
2026-05-05 14:23 40.97519 -159.56986 32873 ft 496 kts 101°
2026-05-05 14:23 40.96976 -159.47886 32863 ft 496 kts 101°
2026-05-05 14:24 40.96424 -159.38790 32886 ft 496 kts 101°
2026-05-05 14:24 40.95864 -159.29682 32875 ft 497 kts 101°
2026-05-05 14:25 40.95294 -159.20556 32877 ft 498 kts 101°
2026-05-05 14:25 40.94721 -159.11412 32893 ft 499 kts 101°
2026-05-05 14:26 40.94135 -159.02246 32900 ft 501 kts 101°
2026-05-05 14:26 40.93538 -158.93044 32915 ft 503 kts 101°
2026-05-05 14:27 40.92934 -158.83815 32891 ft 504 kts 102°
2026-05-05 14:27 40.92318 -158.74575 32912 ft 505 kts 102°
2026-05-05 14:28 40.91700 -158.65302 32919 ft 506 kts 102°
2026-05-05 14:28 40.91073 -158.56025 32934 ft 507 kts 102°
2026-05-05 14:29 40.90435 -158.46750 32935 ft 507 kts 102°
2026-05-05 14:29 40.89788 -158.37467 32938 ft 508 kts 102°
2026-05-05 14:30 40.89137 -158.28225 32949 ft 509 kts 102°
2026-05-05 14:30 40.88474 -158.18915 32936 ft 509 kts 102°
2026-05-05 14:31 40.87804 -158.09596 32953 ft 510 kts 102°
2026-05-05 14:31 40.87120 -158.00204 32958 ft 510 kts 102°
2026-05-05 14:32 40.86433 -157.90868 32974 ft 511 kts 102°
2026-05-05 14:32 40.85738 -157.81522 32968 ft 511 kts 102°
2026-05-05 14:33 40.85036 -157.72191 32968 ft 510 kts 102°
2026-05-05 14:33 40.84333 -157.62944 32977 ft 509 kts 102°
2026-05-05 14:34 40.83619 -157.53656 32944 ft 508 kts 102°
2026-05-05 14:34 40.82897 -157.44379 32982 ft 508 kts 102°
2026-05-05 14:35 40.82168 -157.35099 32989 ft 509 kts 103°
2026-05-05 14:35 40.81429 -157.25806 33002 ft 510 kts 103°
2026-05-05 14:36 40.80683 -157.16495 32993 ft 510 kts 103°
2026-05-05 14:36 40.79927 -157.07170 33004 ft 511 kts 103°
2026-05-05 14:37 40.79163 -156.97834 33015 ft 512 kts 103°
2026-05-05 14:37 40.78390 -156.88475 32972 ft 513 kts 103°
2026-05-05 14:38 40.77609 -156.79113 33009 ft 514 kts 103°
2026-05-05 14:38 40.76819 -156.69747 33025 ft 514 kts 103°
2026-05-05 14:39 40.76020 -156.60361 33030 ft 515 kts 103°
2026-05-05 14:39 40.75215 -156.50972 33032 ft 515 kts 103°
2026-05-05 14:40 40.74398 -156.41576 33029 ft 516 kts 103°
2026-05-05 14:40 40.73573 -156.32167 33042 ft 517 kts 103°
2026-05-05 14:41 40.72740 -156.22753 33010 ft 517 kts 103°
2026-05-05 14:41 40.71899 -156.13338 33042 ft 518 kts 103°
2026-05-05 14:42 40.71054 -156.03964 33053 ft 519 kts 103°
2026-05-05 14:42 40.70189 -155.94447 33056 ft 520 kts 103°
2026-05-05 14:43 40.69325 -155.85046 33059 ft 521 kts 103°
2026-05-05 14:43 40.68441 -155.75500 33062 ft 522 kts 103°
2026-05-05 14:44 40.67552 -155.65995 33068 ft 523 kts 103°
2026-05-05 14:44 40.66654 -155.56475 33057 ft 524 kts 103°
2026-05-05 14:45 40.65747 -155.46951 33068 ft 525 kts 103°
2026-05-05 14:45 40.64837 -155.37473 33078 ft 526 kts 103°
2026-05-05 14:46 40.63911 -155.27916 33058 ft 526 kts 103°
2026-05-05 14:46 40.62977 -155.18361 33080 ft 527 kts 103°
2026-05-05 14:47 40.62188 -155.10345 33093 ft 527 kts 103°
2026-05-05 14:47 40.61237 -155.00776 33088 ft 528 kts 103°
2026-05-05 14:48 40.60278 -154.91192 33081 ft 528 kts 103°
2026-05-05 14:48 40.59309 -154.81620 33133 ft 528 kts 103°
2026-05-05 14:49 40.58333 -154.72025 33098 ft 529 kts 103°
2026-05-05 14:49 40.57351 -154.62443 33097 ft 528 kts 104°
2026-05-05 14:50 40.56367 -154.52947 33113 ft 527 kts 104°
2026-05-05 14:50 40.55370 -154.43411 33106 ft 526 kts 104°
2026-05-05 14:51 40.54368 -154.33885 33079 ft 526 kts 104°
2026-05-05 14:51 40.53355 -154.24362 33118 ft 526 kts 104°
2026-05-05 14:52 40.52336 -154.14834 33127 ft 527 kts 104°
2026-05-05 14:52 40.51307 -154.05279 33126 ft 529 kts 104°
2026-05-05 14:53 40.50265 -153.95702 33130 ft 530 kts 104°
2026-05-05 14:53 40.49212 -153.86103 33137 ft 532 kts 104°
2026-05-05 14:54 40.48149 -153.76477 33130 ft 533 kts 104°
2026-05-05 14:54 40.47077 -153.66842 33130 ft 533 kts 104°
2026-05-05 14:55 40.45996 -153.57201 33146 ft 534 kts 104°
2026-05-05 14:55 40.44911 -153.47606 33149 ft 535 kts 104°
2026-05-05 14:56 40.43812 -153.37952 33148 ft 534 kts 104°
2026-05-05 14:56 40.42705 -153.28299 33143 ft 535 kts 104°
2026-05-05 14:57 40.41589 -153.18652 33156 ft 535 kts 104°
2026-05-05 14:57 40.40465 -153.09002 33149 ft 535 kts 104°
2026-05-05 14:58 40.39334 -152.99362 33165 ft 535 kts 104°
2026-05-05 14:58 40.38193 -152.89721 33160 ft 535 kts 104°
2026-05-05 14:59 40.37043 -152.80068 33135 ft 535 kts 104°
2026-05-05 14:59 40.35887 -152.70426 33167 ft 536 kts 104°
2026-05-05 15:00 40.34918 -152.62403 33173 ft 537 kts 104°
2026-05-05 15:00 40.33542 -152.51101 33155 ft 538 kts 104°
2026-05-05 15:01 40.32355 -152.41420 33173 ft 538 kts 104°
2026-05-05 15:01 40.31160 -152.31735 33181 ft 539 kts 104°
2026-05-05 15:02 40.29954 -152.22043 33149 ft 539 kts 104°
2026-05-05 15:02 40.28742 -152.12357 33183 ft 539 kts 104°
2026-05-05 15:03 40.27520 -152.02671 33192 ft 539 kts 104°
2026-05-05 15:03 40.26290 -151.92986 33190 ft 539 kts 104°
2026-05-05 15:04 40.25052 -151.83303 33190 ft 539 kts 104°
2026-05-05 15:04 40.23813 -151.73681 33186 ft 540 kts 104°
2026-05-05 15:05 40.21928 -151.59160 33190 ft 540 kts 104°
2026-05-05 15:06 40.20661 -151.49490 33192 ft 539 kts 104°
2026-05-05 15:06 40.19386 -151.39819 33197 ft 539 kts 105°
2026-05-05 15:07 40.18104 -151.30157 33187 ft 539 kts 104°
2026-05-05 15:07 40.16815 -151.20506 33206 ft 539 kts 104°
2026-05-05 15:08 40.15518 -151.10863 33204 ft 539 kts 104°
2026-05-05 15:08 40.14212 -151.01216 33190 ft 539 kts 104°
2026-05-05 15:09 40.12898 -150.91570 33213 ft 539 kts 104°
2026-05-05 15:09 40.11574 -150.81921 33213 ft 540 kts 105°
2026-05-05 15:10 40.10242 -150.72270 33189 ft 540 kts 104°
2026-05-05 15:10 40.08903 -150.62627 33218 ft 540 kts 104°
2026-05-05 15:11 40.07555 -150.52983 33225 ft 540 kts 105°
2026-05-05 15:11 40.06198 -150.43335 33215 ft 541 kts 104°
2026-05-05 15:12 40.04825 -150.33629 33224 ft 541 kts 105°
2026-05-05 15:12 40.03449 -150.23969 33223 ft 541 kts 105°
2026-05-05 15:13 40.02067 -150.14324 33204 ft 541 kts 105°
2026-05-05 15:13 40.00680 -150.04690 33229 ft 540 kts 105°
2026-05-05 15:14 39.98940 -149.95214 33231 ft 534 kts 112°
2026-05-05 15:14 39.96620 -149.86016 33215 ft 534 kts 113°
2026-05-05 15:15 39.94279 -149.76829 33232 ft 534 kts 113°
2026-05-05 15:15 39.91966 -149.67626 33239 ft 535 kts 113°
2026-05-05 15:16 39.89679 -149.58472 33215 ft 535 kts 113°
2026-05-05 15:16 39.87375 -149.49265 33234 ft 535 kts 113°
2026-05-05 15:17 39.85045 -149.39997 33238 ft 535 kts 113°
2026-05-05 15:17 39.82736 -149.30861 33225 ft 535 kts 113°
2026-05-05 15:18 39.80402 -149.21665 33242 ft 535 kts 113°
2026-05-05 15:18 39.78063 -149.12478 33244 ft 535 kts 113°
2026-05-05 15:19 39.75717 -149.03299 33235 ft 535 kts 113°
2026-05-05 15:19 39.73365 -148.94132 33237 ft 534 kts 113°
2026-05-05 15:20 39.71008 -148.84980 33244 ft 534 kts 113°
2026-05-05 15:20 39.68645 -148.75840 33250 ft 534 kts 113°
2026-05-05 15:21 39.66275 -148.66707 33243 ft 534 kts 113°
2026-05-05 15:21 39.63897 -148.57575 33250 ft 534 kts 113°
2026-05-05 15:22 39.61511 -148.48447 33246 ft 534 kts 114°
2026-05-05 15:22 39.59120 -148.39332 33247 ft 534 kts 113°
2026-05-05 15:23 39.56721 -148.30222 33248 ft 534 kts 114°
2026-05-05 15:23 39.54317 -148.21123 33248 ft 534 kts 114°
2026-05-05 15:24 39.51905 -148.12029 33242 ft 533 kts 114°
2026-05-05 15:24 39.49488 -148.02949 33253 ft 534 kts 114°
2026-05-05 15:25 39.47062 -147.93869 33250 ft 534 kts 114°
2026-05-05 15:25 39.44628 -147.84794 33259 ft 534 kts 114°
2026-05-05 15:26 39.42188 -147.75726 33250 ft 534 kts 114°
2026-05-05 15:26 39.39739 -147.66656 33252 ft 534 kts 114°
2026-05-05 15:27 39.37302 -147.57663 33243 ft 533 kts 114°
2026-05-05 15:27 39.34828 -147.48566 33249 ft 533 kts 114°
2026-05-05 15:28 39.32363 -147.39536 33251 ft 533 kts 114°
2026-05-05 15:28 39.29892 -147.30516 33241 ft 532 kts 114°
2026-05-05 15:29 39.27434 -147.21572 33250 ft 532 kts 114°
2026-05-05 15:29 39.24954 -147.12582 33248 ft 532 kts 114°
2026-05-05 15:30 39.22466 -147.03592 33246 ft 532 kts 114°
2026-05-05 15:30 39.19975 -146.94625 33248 ft 532 kts 114°
2026-05-05 15:31 39.17474 -146.85654 33250 ft 532 kts 114°
2026-05-05 15:31 39.14968 -146.76693 33237 ft 531 kts 114°
2026-05-05 15:32 39.12455 -146.67739 33252 ft 532 kts 114°
2026-05-05 15:32 39.09933 -146.58785 33242 ft 532 kts 114°
2026-05-05 15:33 39.07404 -146.49834 33235 ft 532 kts 114°
2026-05-05 15:33 39.05290 -146.42381 33254 ft 537 kts 114°
2026-05-05 15:34 39.02700 -146.33285 33251 ft 546 kts 114°
2026-05-05 15:34 39.00062 -146.24048 33235 ft 554 kts 114°
2026-05-05 15:35 38.96948 -146.13172 33246 ft 561 kts 114°
2026-05-05 15:35 38.94246 -146.03765 33233 ft 562 kts 114°
2026-05-05 15:36 38.91973 -145.95881 33236 ft 562 kts 114°
2026-05-05 15:36 38.89253 -145.86480 33232 ft 561 kts 114°
2026-05-05 15:37 38.86527 -145.77094 33216 ft 561 kts 114°
2026-05-05 15:37 38.83799 -145.67737 33231 ft 560 kts 114°
2026-05-05 15:38 38.81069 -145.58403 33228 ft 559 kts 114°
2026-05-05 15:38 38.78333 -145.49081 33213 ft 558 kts 114°
2026-05-05 15:39 38.75592 -145.39779 33223 ft 558 kts 114°
2026-05-05 15:39 38.72848 -145.30492 33227 ft 558 kts 114°
2026-05-05 15:40 38.70093 -145.21208 33216 ft 558 kts 114°
2026-05-05 15:40 38.67352 -145.11995 33223 ft 558 kts 114°
2026-05-05 15:41 38.64584 -145.02725 33222 ft 558 kts 114°
2026-05-05 15:41 38.61805 -144.93451 33222 ft 558 kts 114°
2026-05-05 15:42 38.59021 -144.84192 33226 ft 558 kts 114°
2026-05-05 15:42 38.56227 -144.74931 33207 ft 558 kts 114°
2026-05-05 15:43 38.53427 -144.65682 33225 ft 558 kts 114°
2026-05-05 15:43 38.50617 -144.56431 33220 ft 559 kts 114°
2026-05-05 15:44 38.47800 -144.47186 33206 ft 559 kts 114°
2026-05-05 15:44 38.44979 -144.37959 33225 ft 558 kts 114°
2026-05-05 15:45 38.42151 -144.28740 33226 ft 558 kts 114°
2026-05-05 15:45 38.39317 -144.19534 33222 ft 558 kts 114°
2026-05-05 15:46 38.36476 -144.10336 33228 ft 558 kts 114°
2026-05-05 15:46 38.33628 -144.01144 33234 ft 558 kts 114°
2026-05-05 15:47 38.30774 -143.91964 33227 ft 558 kts 114°
2026-05-05 15:47 38.27911 -143.82787 33237 ft 558 kts 114°
2026-05-05 15:48 38.25043 -143.73623 33225 ft 558 kts 114°
2026-05-05 15:48 38.22166 -143.64459 33254 ft 558 kts 114°
2026-05-05 15:49 38.19278 -143.55292 33230 ft 559 kts 114°
2026-05-05 15:49 38.16381 -143.46125 33264 ft 559 kts 114°
2026-05-05 15:50 38.13478 -143.36967 33245 ft 559 kts 114°
2026-05-05 15:50 38.10568 -143.27820 33255 ft 559 kts 114°
2026-05-05 15:51 38.07651 -143.18681 33265 ft 558 kts 114°
2026-05-05 15:51 38.04731 -143.09556 33266 ft 558 kts 114°
2026-05-05 15:52 38.01802 -143.00435 33250 ft 558 kts 114°
2026-05-05 15:52 37.98869 -142.91333 33268 ft 558 kts 114°
2026-05-05 15:53 37.95929 -142.82237 33276 ft 557 kts 114°
2026-05-05 15:53 37.92985 -142.73160 33266 ft 557 kts 114°
2026-05-05 15:54 37.90034 -142.64086 33280 ft 557 kts 115°
2026-05-05 15:54 37.87077 -142.55026 33286 ft 557 kts 115°
2026-05-05 15:55 37.84136 -142.46041 33282 ft 556 kts 115°
2026-05-05 15:55 37.81169 -142.37005 33289 ft 556 kts 115°
2026-05-05 15:56 37.78198 -142.27987 33280 ft 556 kts 115°
2026-05-05 15:56 37.75222 -142.18978 33298 ft 556 kts 115°
2026-05-05 15:57 37.72237 -142.09972 33288 ft 555 kts 115°
2026-05-05 15:57 37.69247 -142.00979 33284 ft 555 kts 115°
2026-05-05 15:58 37.66253 -141.92003 33300 ft 555 kts 115°
2026-05-05 15:58 37.63252 -141.83032 33301 ft 555 kts 115°
2026-05-05 15:59 37.60252 -141.74089 33298 ft 553 kts 115°
2026-05-05 15:59 37.57247 -141.65162 33304 ft 552 kts 115°
2026-05-05 16:00 37.54241 -141.56257 33290 ft 552 kts 115°
2026-05-05 16:00 37.51234 -141.47378 33306 ft 550 kts 115°
2026-05-05 16:01 37.48226 -141.38523 33310 ft 550 kts 115°
2026-05-05 16:01 37.45214 -141.29682 33303 ft 549 kts 115°
2026-05-05 16:02 37.42202 -141.20864 33308 ft 548 kts 115°
2026-05-05 16:02 37.39183 -141.12056 33307 ft 548 kts 115°
2026-05-05 16:03 37.36161 -141.03265 33308 ft 548 kts 115°
2026-05-05 16:03 37.33132 -140.94478 33307 ft 548 kts 115°
2026-05-05 16:04 37.30098 -140.85703 33299 ft 548 kts 115°
2026-05-05 16:04 37.27056 -140.76930 33306 ft 547 kts 115°
2026-05-05 16:05 37.24011 -140.68174 33311 ft 547 kts 115°
2026-05-05 16:05 37.20960 -140.59427 33307 ft 547 kts 115°
2026-05-05 16:06 37.17904 -140.50691 33319 ft 547 kts 115°
2026-05-05 16:06 37.14841 -140.41960 33306 ft 547 kts 115°
2026-05-05 16:07 37.11772 -140.33238 33311 ft 547 kts 115°
2026-05-05 16:07 37.08698 -140.24524 33312 ft 547 kts 115°
2026-05-05 16:08 37.05638 -140.15877 33306 ft 547 kts 115°
2026-05-05 16:08 37.02550 -140.07169 33320 ft 547 kts 115°
2026-05-05 16:09 36.99544 -139.98418 33324 ft 548 kts 110°
2026-05-05 16:09 36.97245 -139.89336 33324 ft 548 kts 107°
2026-05-05 16:10 36.95033 -139.80223 33325 ft 548 kts 107°
2026-05-05 16:10 36.92786 -139.71120 33320 ft 548 kts 107°
2026-05-05 16:11 36.90506 -139.62046 33319 ft 547 kts 108°
2026-05-05 16:12 36.85924 -139.43968 33330 ft 545 kts 108°
2026-05-05 16:13 36.80191 -139.21489 33319 ft 542 kts 108°
2026-05-05 16:13 36.77892 -139.12528 33318 ft 542 kts 108°
2026-05-05 16:14 36.73280 -138.94653 33320 ft 541 kts 108°
2026-05-05 16:15 36.68646 -138.76814 33304 ft 541 kts 108°
2026-05-05 16:16 36.63983 -138.58992 33321 ft 541 kts 108°
2026-05-05 16:17 36.60467 -138.45630 33317 ft 542 kts 108°
2026-05-05 16:18 36.56933 -138.32270 33320 ft 542 kts 108°
2026-05-05 16:18 36.54562 -138.23347 33452 ft 545 kts 108°
2026-05-05 16:19 36.53373 -138.18883 33701 ft 544 kts 108°
2026-05-05 16:19 36.52185 -138.14430 34009 ft 542 kts 108°
2026-05-05 16:19 36.50212 -138.07051 34459 ft 540 kts 108°
2026-05-05 16:20 36.47454 -137.96772 35008 ft 538 kts 108°
2026-05-05 16:20 36.45472 -137.89412 35261 ft 536 kts 108°
2026-05-05 16:22 36.39592 -137.67688 35305 ft 527 kts 108°
2026-05-05 16:23 36.34898 -137.50474 35311 ft 527 kts 108°
2026-05-05 16:23 36.31356 -137.37555 35305 ft 528 kts 108°
2026-05-05 16:24 36.28978 -137.28921 35300 ft 530 kts 107°
2026-05-05 16:25 36.25390 -137.15940 35309 ft 532 kts 107°
2026-05-05 16:25 36.21775 -137.02927 35300 ft 533 kts 107°
2026-05-05 16:26 36.16924 -136.85564 35296 ft 533 kts 107°
2026-05-05 16:27 36.14497 -136.76916 35294 ft 532 kts 107°
2026-05-05 16:27 36.12065 -136.68282 35296 ft 531 kts 107°
2026-05-05 16:28 36.09631 -136.59664 35299 ft 530 kts 107°
2026-05-05 16:28 36.07210 -136.51121 35296 ft 530 kts 107°
2026-05-05 16:29 36.04769 -136.42533 35301 ft 529 kts 107°
2026-05-05 16:29 36.02339 -136.34012 35296 ft 529 kts 107°
2026-05-05 16:30 35.99887 -136.25438 35292 ft 529 kts 107°
2026-05-05 16:30 35.97429 -136.16869 35301 ft 530 kts 107°
2026-05-05 16:31 35.94964 -136.08305 35292 ft 530 kts 107°
2026-05-05 16:31 35.92489 -135.99731 35287 ft 530 kts 107°
2026-05-05 16:32 35.90008 -135.91166 35290 ft 530 kts 107°
2026-05-05 16:32 35.87521 -135.82605 35284 ft 530 kts 107°
2026-05-05 16:33 35.85029 -135.74050 35287 ft 531 kts 107°
2026-05-05 16:33 35.82528 -135.65492 35292 ft 531 kts 107°
2026-05-05 16:34 35.80023 -135.56948 35281 ft 530 kts 107°
2026-05-05 16:34 35.77511 -135.48407 35282 ft 530 kts 107°
2026-05-05 16:35 35.74996 -135.39879 35288 ft 529 kts 107°
2026-05-05 16:35 35.72496 -135.31427 35277 ft 529 kts 107°
2026-05-05 16:36 35.69977 -135.22940 35290 ft 528 kts 107°
2026-05-05 16:36 35.67458 -135.14473 35280 ft 527 kts 107°
2026-05-05 16:37 35.64934 -135.06020 35273 ft 526 kts 107°
2026-05-05 16:37 35.62410 -134.97588 35294 ft 525 kts 108°
2026-05-05 16:38 35.59885 -134.89181 35267 ft 523 kts 108°
2026-05-05 16:38 35.57363 -134.80807 35273 ft 522 kts 108°
2026-05-05 16:39 35.54842 -134.72459 35273 ft 521 kts 108°
2026-05-05 16:39 35.52318 -134.64126 35271 ft 521 kts 108°
2026-05-05 16:40 35.49788 -134.55798 35276 ft 521 kts 108°
2026-05-05 16:40 35.47253 -134.47475 35272 ft 521 kts 108°
2026-05-05 16:41 35.44706 -134.39138 35282 ft 522 kts 108°
2026-05-05 16:41 35.42149 -134.30792 35273 ft 524 kts 108°
2026-05-05 16:42 35.39579 -134.22430 35281 ft 524 kts 108°
2026-05-05 16:42 35.37003 -134.14072 35274 ft 524 kts 108°
2026-05-05 16:43 35.34421 -134.05720 35266 ft 524 kts 108°
2026-05-05 16:43 35.31833 -133.97372 35272 ft 524 kts 108°
2026-05-05 16:44 35.29241 -133.89034 35264 ft 524 kts 108°
2026-05-05 16:44 35.26645 -133.80704 35277 ft 523 kts 108°
2026-05-05 16:45 35.24049 -133.72400 35260 ft 522 kts 108°
2026-05-05 16:45 35.21451 -133.64114 35261 ft 522 kts 108°
2026-05-05 16:46 35.18853 -133.55850 35272 ft 519 kts 108°
2026-05-05 16:46 35.16260 -133.47627 35262 ft 518 kts 108°
2026-05-05 16:47 35.13668 -133.39424 35276 ft 517 kts 109°
2026-05-05 16:47 35.11077 -133.31252 35262 ft 515 kts 109°
2026-05-05 16:48 35.08486 -133.23103 35260 ft 514 kts 109°
2026-05-05 16:48 35.05897 -133.14984 35266 ft 512 kts 109°
2026-05-05 16:49 35.03317 -133.06911 35262 ft 510 kts 109°
2026-05-05 16:49 35.00724 -132.98813 35270 ft 514 kts 109°
2026-05-05 16:50 34.98121 -132.90714 35248 ft 511 kts 109°
2026-05-05 16:50 34.95528 -132.82671 35248 ft 509 kts 109°
2026-05-05 16:51 34.92923 -132.74604 35273 ft 515 kts 109°
2026-05-05 16:51 34.90279 -132.66437 35263 ft 520 kts 109°
2026-05-05 16:52 34.87618 -132.58246 35270 ft 517 kts 109°
2026-05-05 16:52 34.84981 -132.50163 35251 ft 512 kts 109°
2026-05-05 16:53 34.82367 -132.42158 35252 ft 513 kts 109°
2026-05-05 16:53 34.79727 -132.34092 35254 ft 512 kts 109°
2026-05-05 16:54 34.77084 -132.26040 35240 ft 513 kts 109°
2026-05-05 16:54 34.74432 -132.17982 35265 ft 513 kts 109°
2026-05-05 16:55 34.71775 -132.09935 35243 ft 512 kts 109°
2026-05-05 16:55 34.69121 -132.01917 35232 ft 511 kts 109°
2026-05-05 16:56 34.66465 -131.93910 35250 ft 510 kts 109°
2026-05-05 16:56 34.63808 -131.85925 35236 ft 509 kts 109°
2026-05-05 16:57 34.61152 -131.77959 35235 ft 508 kts 109°
2026-05-05 16:57 34.58498 -131.70026 35237 ft 506 kts 109°
2026-05-05 16:58 34.55855 -131.62140 35231 ft 503 kts 109°
2026-05-05 16:58 34.53219 -131.54296 35237 ft 501 kts 109°
2026-05-05 16:59 34.50586 -131.46482 35229 ft 500 kts 110°
2026-05-05 16:59 34.47954 -131.38691 35232 ft 499 kts 110°
2026-05-05 17:00 34.45321 -131.30913 35247 ft 498 kts 110°
2026-05-05 17:00 34.42682 -131.23140 35230 ft 500 kts 110°
2026-05-05 17:01 34.40031 -131.15349 35231 ft 501 kts 110°
2026-05-05 17:01 34.37367 -131.07542 35235 ft 502 kts 110°
2026-05-05 17:02 34.34695 -130.99732 35219 ft 503 kts 110°
2026-05-05 17:02 34.32015 -130.91913 35229 ft 504 kts 110°
2026-05-05 17:03 34.29344 -130.84143 35230 ft 503 kts 110°
2026-05-05 17:03 34.26656 -130.76344 35216 ft 502 kts 110°
2026-05-05 17:04 34.23967 -130.68560 35226 ft 502 kts 110°
2026-05-05 17:04 34.21250 -130.60712 35225 ft 503 kts 110°
2026-05-05 17:05 34.18559 -130.52962 35222 ft 504 kts 110°
2026-05-05 17:05 34.15816 -130.45081 35232 ft 507 kts 110°
2026-05-05 17:06 34.13093 -130.37274 35219 ft 509 kts 110°
2026-05-05 17:06 34.10785 -130.30671 35219 ft 510 kts 110°
2026-05-05 17:07 34.07573 -130.21509 35222 ft 510 kts 110°
2026-05-05 17:07 34.05252 -130.14903 35208 ft 510 kts 110°
2026-05-05 17:08 34.02481 -130.07034 35210 ft 510 kts 110°
2026-05-05 17:08 33.99712 -129.99182 35224 ft 508 kts 110°
2026-05-05 17:09 33.97123 -129.91279 35211 ft 507 kts 108°
2026-05-05 17:09 33.94646 -129.83335 35208 ft 507 kts 108°
2026-05-05 17:10 33.92145 -129.75385 35215 ft 507 kts 108°
2026-05-05 17:10 33.89615 -129.67463 35189 ft 507 kts 108°
2026-05-05 17:11 33.87062 -129.59526 35209 ft 509 kts 109°
2026-05-05 17:11 33.84497 -129.51571 35197 ft 510 kts 109°
2026-05-05 17:12 33.81929 -129.43625 35198 ft 509 kts 109°
2026-05-05 17:12 33.79359 -129.35689 35187 ft 510 kts 109°
2026-05-05 17:13 33.76783 -129.27751 35204 ft 510 kts 109°
2026-05-05 17:13 33.74197 -129.19809 35195 ft 510 kts 109°
2026-05-05 17:14 33.71611 -129.11884 35213 ft 510 kts 109°
2026-05-05 17:14 33.69039 -129.04026 35197 ft 508 kts 109°
2026-05-05 17:15 33.66456 -128.96152 35192 ft 506 kts 109°
2026-05-05 17:15 33.63878 -128.88310 35197 ft 504 kts 109°
2026-05-05 17:16 33.61310 -128.80521 35186 ft 501 kts 109°
2026-05-05 17:16 33.58741 -128.72746 35192 ft 502 kts 109°
2026-05-05 17:17 33.56157 -128.64943 35201 ft 505 kts 109°
2026-05-05 17:17 33.53559 -128.57121 35193 ft 505 kts 109°